Wetterdaten: Dienstag, 16.03.2010
Datum Zeit Temp. Innen Temp. Aussen UV X Diff Temp. Feuchte Inne Feuchte Auss Sonnenschein Luftdruck Regen ab 0,1 Wind Sonnenschein Windben
16.03.2010 00:00 13,0 C 5,7 C 0,0 UV-I 0,0 C 56 % 93 % 0 % 1019,9 hPa 0,0 l/m 5,2 km/h (1 Bft) 0 min 7,9 km/h (2 Bft)
16.03.2010 00:02 13,0 C 5,7 C 0,0 UV-I 0,0 C 56 % 93 % 0 % 1019,9 hPa 0,0 l/m 4,8 km/h (1 Bft) 0 min 5,8 km/h (2 Bft)
16.03.2010 00:06 13,0 C 5,7 C 0,0 UV-I 0,0 C 57 % 93 % 0 % 1019,9 hPa 0,0 l/m 6,4 km/h (2 Bft) 0 min 8,7 km/h (2 Bft)
16.03.2010 00:08 13,0 C 5,7 C 0,0 UV-I 0,0 C 57 % 93 % 0 % 1019,9 hPa 0,0 l/m 7,6 km/h (2 Bft) 0 min 6,0 km/h (2 Bft)
16.03.2010 00:10 13,0 C 5,7 C 0,0 UV-I 0,0 C 57 % 93 % 0 % 1019,9 hPa 0,0 l/m 8,0 km/h (2 Bft) 0 min 5,8 km/h (2 Bft)
16.03.2010 00:12 13,0 C 5,7 C 0,0 UV-I 0,0 C 57 % 93 % 0 % 1020,1 hPa 0,0 l/m 8,0 km/h (2 Bft) 0 min 4,3 km/h (1 Bft)
16.03.2010 00:14 13,0 C 5,7 C 0,0 UV-I 0,0 C 57 % 93 % 0 % 1020,1 hPa 0,0 l/m 8,0 km/h (2 Bft) 0 min 3,4 km/h (1 Bft)
16.03.2010 00:18 13,0 C 5,7 C 0,0 UV-I 0,0 C 57 % 93 % 0 % 1020,1 hPa 0,0 l/m 6,4 km/h (2 Bft) 0 min 0,0 km/h (0 Bft)
16.03.2010 00:22 13,0 C 5,7 C 0,0 UV-I 0,0 C 57 % 93 % 0 % 1020,1 hPa 0,0 l/m 6,4 km/h (2 Bft) 0 min 2,6 km/h (1 Bft)
16.03.2010 00:24 13,0 C 5,8 C 0,0 UV-I 0,0 C 57 % 93 % 0 % 1020,1 hPa 0,0 l/m 5,6 km/h (1 Bft) 0 min 0,0 km/h (0 Bft)
16.03.2010 00:26 13,0 C 5,9 C 0,0 UV-I 0,0 C 57 % 93 % 0 % 1020,1 hPa 0,0 l/m 5,6 km/h (1 Bft) 0 min 5,1 km/h (1 Bft)
16.03.2010 00:28 13,0 C 5,9 C 0,0 UV-I 0,0 C 57 % 94 % 0 % 1020,1 hPa 0,0 l/m 5,6 km/h (1 Bft) 0 min 9,9 km/h (2 Bft)
16.03.2010 00:30 13,0 C 5,9 C 0,0 UV-I 0,0 C 57 % 94 % 0 % 1020,1 hPa 0,1 l/m 5,6 km/h (1 Bft) 0 min 9,6 km/h (2 Bft)
16.03.2010 00:32 13,0 C 5,9 C 0,0 UV-I 0,0 C 57 % 94 % 0 % 1019,8 hPa 0,0 l/m 6,4 km/h (2 Bft) 0 min 9,4 km/h (2 Bft)
16.03.2010 00:34 13,0 C 5,9 C 0,0 UV-I 0,0 C 57 % 94 % 0 % 1019,8 hPa 0,0 l/m 6,8 km/h (2 Bft) 0 min 6,5 km/h (2 Bft)
16.03.2010 00:36 13,0 C 5,9 C 0,0 UV-I 0,0 C 57 % 94 % 0 % 1019,8 hPa 0,0 l/m 6,8 km/h (2 Bft) 0 min 3,8 km/h (1 Bft)
16.03.2010 00:38 13,0 C 5,9 C 0,0 UV-I 0,0 C 57 % 94 % 0 % 1019,8 hPa 0,0 l/m 7,6 km/h (2 Bft) 0 min 4,1 km/h (1 Bft)
16.03.2010 00:40 13,0 C 5,8 C 0,0 UV-I 0,0 C 57 % 93 % 0 % 1019,8 hPa 0,0 l/m 8,4 km/h (2 Bft) 0 min 4,3 km/h (1 Bft)
16.03.2010 00:42 13,0 C 5,8 C 0,0 UV-I 0,0 C 57 % 93 % 0 % 1019,8 hPa 0,1 l/m 7,6 km/h (2 Bft) 0 min 6,0 km/h (2 Bft)
16.03.2010 00:44 13,0 C 5,8 C 0,0 UV-I 0,0 C 57 % 93 % 0 % 1019,8 hPa 0,0 l/m 7,6 km/h (2 Bft) 0 min 6,7 km/h (2 Bft)
16.03.2010 00:46 13,0 C 5,8 C 0,0 UV-I 0,0 C 57 % 93 % 0 % 1019,8 hPa 0,0 l/m 6,8 km/h (2 Bft) 0 min 0,0 km/h (0 Bft)
16.03.2010 00:48 13,0 C 5,9 C 0,0 UV-I 0,0 C 57 % 93 % 0 % 1019,8 hPa 0,0 l/m 8,0 km/h (2 Bft) 0 min 10,8 km/h (2 Bft)
16.03.2010 00:50 13,0 C 5,9 C 0,0 UV-I 0,0 C 57 % 93 % 0 % 1019,8 hPa 0,0 l/m 7,6 km/h (2 Bft) 0 min 3,8 km/h (1 Bft)
16.03.2010 00:52 13,0 C 5,9 C 0,0 UV-I 0,0 C 57 % 93 % 0 % 1020,0 hPa 0,0 l/m 6,8 km/h (2 Bft) 0 min 4,6 km/h (1 Bft)
16.03.2010 00:54 13,0 C 5,9 C 0,0 UV-I 0,0 C 57 % 93 % 0 % 1020,0 hPa 0,0 l/m 5,2 km/h (1 Bft) 0 min 2,6 km/h (1 Bft)
16.03.2010 00:56 13,0 C 5,9 C 0,0 UV-I 0,0 C 57 % 93 % 0 % 1020,0 hPa 0,0 l/m 5,2 km/h (1 Bft) 0 min 3,6 km/h (1 Bft)
16.03.2010 00:58 13,0 C 5,9 C 0,0 UV-I 0,0 C 57 % 93 % 0 % 1020,0 hPa 0,1 l/m 5,6 km/h (1 Bft) 0 min 5,5 km/h (1 Bft)
16.03.2010 01:00 13,0 C 5,9 C 0,0 UV-I 0,0 C 57 % 93 % 0 % 1020,0 hPa 0,1 l/m 3,6 km/h (1 Bft) 0 min 0,0 km/h (0 Bft)
16.03.2010 01:02 13,0 C 5,9 C 0,0 UV-I 0,0 C 57 % 93 % 0 % 1020,0 hPa 0,0 l/m 4,0 km/h (1 Bft) 0 min 3,1 km/h (1 Bft)
16.03.2010 01:04 13,0 C 5,9 C 0,0 UV-I 0,0 C 57 % 93 % 0 % 1020,0 hPa 0,0 l/m 4,4 km/h (1 Bft) 0 min 0,0 km/h (0 Bft)
16.03.2010 01:06 13,0 C 5,9 C 0,0 UV-I 0,0 C 57 % 93 % 0 % 1020,0 hPa 0,0 l/m 4,4 km/h (1 Bft) 0 min 0,0 km/h (0 Bft)
16.03.2010 01:10 13,0 C 5,9 C 0,0 UV-I 0,0 C 57 % 93 % 0 % 1020,0 hPa 0,1 l/m 2,8 km/h (1 Bft) 0 min 3,1 km/h (1 Bft)
16.03.2010 01:12 13,0 C 5,9 C 0,0 UV-I 0,0 C 57 % 93 % 0 % 1019,9 hPa 0,0 l/m 3,2 km/h (1 Bft) 0 min 3,6 km/h (1 Bft)
16.03.2010 01:14 13,0 C 5,9 C 0,0 UV-I 0,0 C 57 % 94 % 0 % 1019,9 hPa 0,0 l/m 2,8 km/h (1 Bft) 0 min 5,8 km/h (2 Bft)
16.03.2010 01:16 13,0 C 5,9 C 0,0 UV-I 0,0 C 57 % 94 % 0 % 1019,9 hPa 0,0 l/m 4,4 km/h (1 Bft) 0 min 3,1 km/h (1 Bft)
16.03.2010 01:18 13,0 C 5,9 C 0,0 UV-I 0,0 C 57 % 94 % 0 % 1019,9 hPa 0,2 l/m 4,0 km/h (1 Bft) 0 min 3,1 km/h (1 Bft)
16.03.2010 01:22 13,0 C 5,9 C 0,0 UV-I 0,0 C 57 % 94 % 0 % 1019,9 hPa 0,1 l/m 6,0 km/h (2 Bft) 0 min 15,4 km/h (3 Bft)
16.03.2010 01:24 13,0 C 5,9 C 0,0 UV-I 0,0 C 57 % 94 % 0 % 1019,9 hPa 0,0 l/m 6,0 km/h (2 Bft) 0 min 0,0 km/h (0 Bft)
16.03.2010 01:26 13,0 C 5,9 C 0,0 UV-I 0,0 C 57 % 94 % 0 % 1019,9 hPa 0,1 l/m 5,2 km/h (1 Bft) 0 min 11,5 km/h (2 Bft)
16.03.2010 01:28 13,0 C 5,9 C 0,0 UV-I 0,0 C 57 % 94 % 0 % 1019,9 hPa 0,0 l/m 6,0 km/h (2 Bft) 0 min 6,0 km/h (2 Bft)
16.03.2010 01:30 13,0 C 6,0 C 0,0 UV-I 0,0 C 57 % 94 % 0 % 1019,9 hPa 0,0 l/m 6,4 km/h (2 Bft) 0 min 8,7 km/h (2 Bft)
16.03.2010 01:34 13,0 C 6,0 C 0,0 UV-I 0,0 C 57 % 94 % 0 % 1020,0 hPa 0,1 l/m 6,8 km/h (2 Bft) 0 min 3,1 km/h (1 Bft)
16.03.2010 01:36 13,0 C 6,0 C 0,0 UV-I 0,0 C 57 % 94 % 0 % 1020,0 hPa 0,0 l/m 10,0 km/h (2 Bft) 0 min 13,2 km/h (3 Bft)
16.03.2010 01:38 13,0 C 6,0 C 0,0 UV-I 0,0 C 57 % 94 % 0 % 1020,0 hPa 0,0 l/m 10,4 km/h (2 Bft) 0 min 4,3 km/h (1 Bft)
16.03.2010 01:40 13,0 C 6,0 C 0,0 UV-I 0,0 C 57 % 94 % 0 % 1020,0 hPa 0,1 l/m 10,4 km/h (2 Bft) 0 min 24,3 km/h (4 Bft)
16.03.2010 01:44 13,0 C 6,0 C 0,0 UV-I 0,0 C 57 % 94 % 0 % 1020,0 hPa 0,0 l/m 10,4 km/h (2 Bft) 0 min 12,5 km/h (3 Bft)
16.03.2010 01:46 13,0 C 6,0 C 0,0 UV-I 0,0 C 57 % 94 % 0 % 1020,0 hPa 0,0 l/m 10,8 km/h (2 Bft) 0 min 6,3 km/h (2 Bft)
16.03.2010 01:50 13,0 C 6,0 C 0,0 UV-I 0,0 C 57 % 94 % 0 % 1020,0 hPa 0,0 l/m 9,6 km/h (2 Bft) 0 min 11,5 km/h (2 Bft)
16.03.2010 01:52 13,0 C 6,0 C 0,0 UV-I 0,0 C 57 % 93 % 0 % 1019,8 hPa 0,1 l/m 10,0 km/h (2 Bft) 0 min 6,0 km/h (2 Bft)
16.03.2010 01:54 13,0 C 6,0 C 0,0 UV-I 0,0 C 57 % 93 % 0 % 1019,8 hPa 0,0 l/m 10,0 km/h (2 Bft) 0 min 7,2 km/h (2 Bft)
16.03.2010 01:56 13,0 C 5,9 C 0,0 UV-I 0,0 C 57 % 93 % 0 % 1019,8 hPa 0,1 l/m 10,0 km/h (2 Bft) 0 min 15,2 km/h (3 Bft)
16.03.2010 01:58 13,0 C 5,9 C 0,0 UV-I 0,0 C 57 % 93 % 0 % 1019,8 hPa 0,0 l/m 9,2 km/h (2 Bft) 0 min 4,3 km/h (1 Bft)
16.03.2010 02:00 13,0 C 5,9 C 0,0 UV-I 0,0 C 57 % 93 % 0 % 1019,8 hPa 0,0 l/m 10,8 km/h (2 Bft) 0 min 9,4 km/h (2 Bft)
16.03.2010 02:02 13,0 C 5,9 C 0,0 UV-I 0,0 C 57 % 93 % 0 % 1019,8 hPa 0,0 l/m 11,2 km/h (2 Bft) 0 min 19,5 km/h (3 Bft)
16.03.2010 02:04 13,0 C 5,9 C 0,0 UV-I 0,0 C 57 % 93 % 0 % 1019,8 hPa 0,1 l/m 10,4 km/h (2 Bft) 0 min 3,8 km/h (1 Bft)
16.03.2010 02:06 13,0 C 5,9 C 0,0 UV-I 0,0 C 57 % 93 % 0 % 1019,8 hPa 0,0 l/m 10,4 km/h (2 Bft) 0 min 3,1 km/h (1 Bft)
16.03.2010 02:08 13,0 C 5,9 C 0,0 UV-I 0,0 C 57 % 93 % 0 % 1019,8 hPa 0,0 l/m 10,8 km/h (2 Bft) 0 min 11,3 km/h (2 Bft)
16.03.2010 02:10 13,0 C 5,9 C 0,0 UV-I 0,0 C 57 % 93 % 0 % 1019,8 hPa 0,0 l/m 10,0 km/h (2 Bft) 0 min 9,1 km/h (2 Bft)
16.03.2010 02:12 13,0 C 5,9 C 0,0 UV-I 0,0 C 57 % 93 % 0 % 1020,2 hPa 0,0 l/m 9,6 km/h (2 Bft) 0 min 3,8 km/h (1 Bft)
16.03.2010 02:14 13,0 C 5,9 C 0,0 UV-I 0,0 C 57 % 93 % 0 % 1020,2 hPa 0,0 l/m 8,4 km/h (2 Bft) 0 min 8,7 km/h (2 Bft)
16.03.2010 02:16 13,0 C 6,0 C 0,0 UV-I 0,0 C 57 % 93 % 0 % 1020,2 hPa 0,0 l/m 9,2 km/h (2 Bft) 0 min 9,9 km/h (2 Bft)
16.03.2010 02:18 13,0 C 5,9 C 0,0 UV-I 0,0 C 57 % 93 % 0 % 1020,2 hPa 0,0 l/m 10,0 km/h (2 Bft) 0 min 9,9 km/h (2 Bft)
16.03.2010 02:24 13,0 C 5,9 C 0,0 UV-I 0,0 C 57 % 93 % 0 % 1020,2 hPa 0,0 l/m 8,8 km/h (2 Bft) 0 min 4,1 km/h (1 Bft)
16.03.2010 02:26 13,0 C 5,9 C 0,0 UV-I 0,0 C 57 % 93 % 0 % 1020,2 hPa 0,0 l/m 8,8 km/h (2 Bft) 0 min 4,8 km/h (1 Bft)
16.03.2010 02:28 13,0 C 5,9 C 0,0 UV-I 0,0 C 57 % 93 % 0 % 1020,2 hPa 0,0 l/m 6,8 km/h (2 Bft) 0 min 4,6 km/h (1 Bft)
16.03.2010 02:30 13,0 C 5,9 C 0,0 UV-I 0,0 C 57 % 93 % 0 % 1020,2 hPa 0,0 l/m 5,6 km/h (1 Bft) 0 min 5,1 km/h (1 Bft)
16.03.2010 02:32 13,0 C 5,9 C 0,0 UV-I 0,0 C 57 % 93 % 0 % 1020,1 hPa 0,0 l/m 6,0 km/h (2 Bft) 0 min 6,3 km/h (2 Bft)
16.03.2010 02:34 13,0 C 5,9 C 0,0 UV-I 0,0 C 57 % 93 % 0 % 1020,1 hPa 0,0 l/m 5,6 km/h (1 Bft) 0 min 6,0 km/h (2 Bft)
16.03.2010 02:40 13,0 C 5,9 C 0,0 UV-I 0,0 C 57 % 93 % 0 % 1020,1 hPa 0,0 l/m 8,8 km/h (2 Bft) 0 min 12,0 km/h (2 Bft)
16.03.2010 02:42 13,0 C 5,9 C 0,0 UV-I 0,0 C 57 % 93 % 0 % 1020,1 hPa 0,0 l/m 9,2 km/h (2 Bft) 0 min 2,9 km/h (1 Bft)
16.03.2010 02:44 13,0 C 5,9 C 0,0 UV-I 0,0 C 57 % 93 % 0 % 1020,1 hPa 0,0 l/m 10,0 km/h (2 Bft) 0 min 8,2 km/h (2 Bft)
16.03.2010 02:46 13,0 C 5,9 C 0,0 UV-I 0,0 C 57 % 93 % 0 % 1020,1 hPa 0,0 l/m 10,0 km/h (2 Bft) 0 min 6,0 km/h (2 Bft)
16.03.2010 02:48 13,0 C 5,9 C 0,0 UV-I 0,0 C 57 % 93 % 0 % 1020,1 hPa 0,0 l/m 8,8 km/h (2 Bft) 0 min 13,5 km/h (3 Bft)
16.03.2010 02:50 13,0 C 5,9 C 0,0 UV-I 0,0 C 57 % 93 % 0 % 1020,1 hPa 0,0 l/m 7,6 km/h (2 Bft) 0 min 5,5 km/h (1 Bft)
16.03.2010 02:52 13,0 C 5,9 C 0,0 UV-I 0,0 C 57 % 93 % 0 % 1020,2 hPa 0,0 l/m 6,4 km/h (2 Bft) 0 min 9,4 km/h (2 Bft)
16.03.2010 02:54 13,0 C 5,8 C 0,0 UV-I 0,0 C 57 % 93 % 0 % 1020,2 hPa 0,0 l/m 6,8 km/h (2 Bft) 0 min 6,3 km/h (2 Bft)
16.03.2010 02:56 13,0 C 5,8 C 0,0 UV-I 0,0 C 57 % 93 % 0 % 1020,2 hPa 0,0 l/m 6,4 km/h (2 Bft) 0 min 7,0 km/h (2 Bft)
16.03.2010 02:58 13,0 C 5,9 C 0,0 UV-I 0,0 C 57 % 93 % 0 % 1020,2 hPa 0,0 l/m 7,6 km/h (2 Bft) 0 min 4,3 km/h (1 Bft)
16.03.2010 03:02 13,0 C 5,9 C 0,0 UV-I 0,0 C 57 % 93 % 0 % 1020,2 hPa 0,0 l/m 8,0 km/h (2 Bft) 0 min 4,1 km/h (1 Bft)
16.03.2010 03:04 13,0 C 5,9 C 0,0 UV-I 0,0 C 57 % 93 % 0 % 1020,2 hPa 0,0 l/m 8,0 km/h (2 Bft) 0 min 4,1 km/h (1 Bft)
16.03.2010 03:06 13,0 C 5,9 C 0,0 UV-I 0,0 C 57 % 93 % 0 % 1020,2 hPa 0,0 l/m 8,0 km/h (2 Bft) 0 min 3,4 km/h (1 Bft)
16.03.2010 03:10 13,0 C 5,9 C 0,0 UV-I 0,0 C 57 % 93 % 0 % 1020,2 hPa 0,0 l/m 6,8 km/h (2 Bft) 0 min 10,8 km/h (2 Bft)
16.03.2010 03:12 13,0 C 5,9 C 0,0 UV-I 0,0 C 57 % 93 % 0 % 1020,3 hPa 0,0 l/m 6,4 km/h (2 Bft) 0 min 7,2 km/h (2 Bft)
16.03.2010 03:14 13,0 C 5,9 C 0,0 UV-I 0,0 C 57 % 93 % 0 % 1020,3 hPa 0,0 l/m 6,4 km/h (2 Bft) 0 min 0,0 km/h (0 Bft)
16.03.2010 03:16 13,0 C 5,8 C 0,0 UV-I 0,0 C 57 % 93 % 0 % 1020,3 hPa 0,0 l/m 5,6 km/h (1 Bft) 0 min 13,0 km/h (3 Bft)
16.03.2010 03:18 13,0 C 5,9 C 0,0 UV-I 0,0 C 57 % 93 % 0 % 1020,3 hPa 0,0 l/m 5,2 km/h (1 Bft) 0 min 5,8 km/h (2 Bft)
16.03.2010 03:20 13,0 C 5,8 C 0,0 UV-I 0,0 C 57 % 93 % 0 % 1020,3 hPa 0,0 l/m 6,0 km/h (2 Bft) 0 min 3,8 km/h (1 Bft)
16.03.2010 03:22 12,8 C 5,7 C 0,0 UV-I 0,0 C 57 % 93 % 0 % 1020,3 hPa 0,0 l/m 5,6 km/h (1 Bft) 0 min 0,0 km/h (0 Bft)
16.03.2010 03:24 13,0 C 5,7 C 0,0 UV-I 0,0 C 57 % 93 % 0 % 1020,3 hPa 0,0 l/m 6,0 km/h (2 Bft) 0 min 15,6 km/h (3 Bft)
16.03.2010 03:26 13,0 C 5,7 C 0,0 UV-I 0,0 C 57 % 93 % 0 % 1020,3 hPa 0,0 l/m 6,0 km/h (2 Bft) 0 min 6,3 km/h (2 Bft)
16.03.2010 03:28 13,0 C 5,7 C 0,0 UV-I 0,0 C 57 % 93 % 0 % 1020,3 hPa 0,0 l/m 6,0 km/h (2 Bft) 0 min 2,6 km/h (1 Bft)
16.03.2010 03:30 13,0 C 5,7 C 0,0 UV-I 0,0 C 57 % 93 % 0 % 1020,3 hPa 0,0 l/m 4,8 km/h (1 Bft) 0 min 0,0 km/h (0 Bft)
16.03.2010 03:32 13,0 C 5,7 C 0,0 UV-I 0,0 C 57 % 93 % 0 % 1019,9 hPa 0,0 l/m 6,0 km/h (2 Bft) 0 min 4,3 km/h (1 Bft)
16.03.2010 03:38 13,0 C 5,7 C 0,0 UV-I 0,0 C 57 % 93 % 0 % 1019,9 hPa 0,0 l/m 6,4 km/h (2 Bft) 0 min 6,0 km/h (2 Bft)
16.03.2010 03:40 13,0 C 5,7 C 0,0 UV-I 0,0 C 57 % 93 % 0 % 1019,9 hPa 0,0 l/m 6,0 km/h (2 Bft) 0 min 0,0 km/h (0 Bft)
16.03.2010 03:42 13,0 C 5,7 C 0,0 UV-I 0,0 C 57 % 93 % 0 % 1019,9 hPa 0,0 l/m 5,6 km/h (1 Bft) 0 min 5,3 km/h (1 Bft)
16.03.2010 03:48 13,0 C 5,7 C 0,0 UV-I 0,0 C 57 % 93 % 0 % 1019,9 hPa 0,0 l/m 5,2 km/h (1 Bft) 0 min 4,6 km/h (1 Bft)
16.03.2010 03:50 13,0 C 5,7 C 0,0 UV-I 0,0 C 57 % 93 % 0 % 1019,9 hPa 0,0 l/m 4,8 km/h (1 Bft) 0 min 0,0 km/h (0 Bft)
16.03.2010 03:54 13,0 C 5,7 C 0,0 UV-I 0,0 C 57 % 93 % 0 % 1020,4 hPa 0,0 l/m 6,0 km/h (2 Bft) 0 min 9,4 km/h (2 Bft)
16.03.2010 03:58 13,0 C 5,7 C 0,0 UV-I 0,0 C 57 % 93 % 0 % 1020,4 hPa 0,0 l/m 4,4 km/h (1 Bft) 0 min 3,6 km/h (1 Bft)
16.03.2010 04:02 13,0 C 5,7 C 0,0 UV-I 0,0 C 57 % 93 % 0 % 1020,4 hPa 0,1 l/m 4,0 km/h (1 Bft) 0 min 5,3 km/h (1 Bft)
16.03.2010 04:04 13,0 C 5,7 C 0,0 UV-I 0,0 C 57 % 93 % 0 % 1020,4 hPa 0,0 l/m 3,2 km/h (1 Bft) 0 min 4,3 km/h (1 Bft)
16.03.2010 04:06 13,0 C 5,6 C 0,0 UV-I 0,0 C 57 % 93 % 0 % 1020,4 hPa 0,0 l/m 4,0 km/h (1 Bft) 0 min 3,1 km/h (1 Bft)
16.03.2010 04:08 13,0 C 5,7 C 0,0 UV-I 0,0 C 57 % 93 % 0 % 1020,4 hPa 0,0 l/m 4,8 km/h (1 Bft) 0 min 10,1 km/h (2 Bft)
16.03.2010 04:10 13,0 C 5,7 C 0,0 UV-I 0,0 C 57 % 93 % 0 % 1020,4 hPa 0,0 l/m 4,8 km/h (1 Bft) 0 min 5,3 km/h (1 Bft)
16.03.2010 04:13 13,0 C 5,7 C 0,0 UV-I 0,0 C 57 % 93 % 0 % 1020,4 hPa 0,0 l/m 6,8 km/h (2 Bft) 0 min 4,8 km/h (1 Bft)
16.03.2010 04:19 13,0 C 5,7 C 0,0 UV-I 0,0 C 57 % 93 % 0 % 1020,4 hPa 0,0 l/m 6,4 km/h (2 Bft) 0 min 10,3 km/h (2 Bft)
16.03.2010 04:20 13,0 C 5,7 C 0,0 UV-I 0,0 C 57 % 93 % 0 % 1020,4 hPa 0,0 l/m 6,4 km/h (2 Bft) 0 min 10,3 km/h (2 Bft)
16.03.2010 04:22 13,0 C 5,7 C 0,0 UV-I 0,0 C 57 % 93 % 0 % 1020,4 hPa 0,0 l/m 5,6 km/h (1 Bft) 0 min 5,1 km/h (1 Bft)
16.03.2010 04:24 13,0 C 5,7 C 0,0 UV-I 0,0 C 57 % 93 % 0 % 1020,4 hPa 0,0 l/m 4,4 km/h (1 Bft) 0 min 0,0 km/h (0 Bft)
16.03.2010 04:26 13,0 C 5,7 C 0,0 UV-I 0,0 C 57 % 93 % 0 % 1020,4 hPa 0,0 l/m 3,6 km/h (1 Bft) 0 min 4,3 km/h (1 Bft)
16.03.2010 04:28 13,0 C 5,7 C 0,0 UV-I 0,0 C 57 % 93 % 0 % 1020,4 hPa 0,0 l/m 3,2 km/h (1 Bft) 0 min 2,6 km/h (1 Bft)
16.03.2010 04:30 13,0 C 5,7 C 0,0 UV-I 0,0 C 57 % 93 % 0 % 1020,4 hPa 0,0 l/m 3,6 km/h (1 Bft) 0 min 0,0 km/h (0 Bft)
16.03.2010 04:32 13,0 C 5,7 C 0,0 UV-I 0,0 C 57 % 93 % 0 % 1020,4 hPa 0,0 l/m 3,2 km/h (1 Bft) 0 min 5,3 km/h (1 Bft)
16.03.2010 04:34 13,0 C 5,7 C 0,0 UV-I 0,0 C 57 % 93 % 0 % 1020,4 hPa 0,0 l/m 3,2 km/h (1 Bft) 0 min 0,0 km/h (0 Bft)
16.03.2010 04:36 13,0 C 5,7 C 0,0 UV-I 0,0 C 57 % 93 % 0 % 1020,4 hPa 0,0 l/m 4,0 km/h (1 Bft) 0 min 6,7 km/h (2 Bft)
16.03.2010 04:38 13,0 C 5,7 C 0,0 UV-I 0,0 C 57 % 93 % 0 % 1020,4 hPa 0,0 l/m 4,0 km/h (1 Bft) 0 min 4,6 km/h (1 Bft)
16.03.2010 04:40 12,9 C 5,7 C 0,0 UV-I 0,0 C 57 % 93 % 0 % 1020,4 hPa 0,0 l/m 2,8 km/h (1 Bft) 0 min 2,9 km/h (1 Bft)
16.03.2010 04:42 13,0 C 5,7 C 0,0 UV-I 0,0 C 57 % 93 % 0 % 1020,4 hPa 0,0 l/m 3,6 km/h (1 Bft) 0 min 5,1 km/h (1 Bft)
16.03.2010 04:44 13,0 C 5,7 C 0,0 UV-I 0,0 C 57 % 93 % 0 % 1020,4 hPa 0,0 l/m 3,6 km/h (1 Bft) 0 min 0,0 km/h (0 Bft)
16.03.2010 04:46 13,0 C 5,7 C 0,0 UV-I 0,0 C 57 % 93 % 0 % 1020,4 hPa 0,0 l/m 4,4 km/h (1 Bft) 0 min 6,7 km/h (2 Bft)
16.03.2010 04:48 13,0 C 5,7 C 0,0 UV-I 0,0 C 57 % 93 % 0 % 1020,4 hPa 0,0 l/m 4,4 km/h (1 Bft) 0 min 0,0 km/h (0 Bft)
16.03.2010 04:50 13,0 C 5,7 C 0,0 UV-I 0,0 C 57 % 93 % 0 % 1020,4 hPa 0,0 l/m 6,0 km/h (2 Bft) 0 min 7,2 km/h (2 Bft)
16.03.2010 04:52 13,0 C 5,7 C 0,0 UV-I 0,0 C 57 % 94 % 0 % 1020,9 hPa 0,0 l/m 6,4 km/h (2 Bft) 0 min 0,0 km/h (0 Bft)
16.03.2010 04:54 13,0 C 5,7 C 0,0 UV-I 0,0 C 57 % 94 % 0 % 1020,9 hPa 0,0 l/m 6,0 km/h (2 Bft) 0 min 4,8 km/h (1 Bft)
16.03.2010 04:56 13,0 C 5,7 C 0,0 UV-I 0,0 C 57 % 93 % 0 % 1020,9 hPa 0,0 l/m 6,8 km/h (2 Bft) 0 min 2,9 km/h (1 Bft)
16.03.2010 04:58 12,9 C 5,7 C 0,0 UV-I 0,0 C 57 % 94 % 0 % 1020,9 hPa 0,0 l/m 6,0 km/h (2 Bft) 0 min 0,0 km/h (0 Bft)
16.03.2010 05:00 12,9 C 5,7 C 0,0 UV-I 0,0 C 57 % 94 % 0 % 1020,9 hPa 0,0 l/m 5,2 km/h (1 Bft) 0 min 6,7 km/h (2 Bft)
16.03.2010 05:02 13,0 C 5,7 C 0,0 UV-I 0,0 C 57 % 94 % 0 % 1020,9 hPa 0,0 l/m 5,6 km/h (1 Bft) 0 min 6,3 km/h (2 Bft)
16.03.2010 05:04 12,9 C 5,7 C 0,0 UV-I 0,0 C 57 % 94 % 0 % 1020,9 hPa 0,0 l/m 5,6 km/h (1 Bft) 0 min 3,6 km/h (1 Bft)
16.03.2010 05:06 12,9 C 5,7 C 0,0 UV-I 0,0 C 57 % 94 % 0 % 1020,9 hPa 0,0 l/m 4,8 km/h (1 Bft) 0 min 3,6 km/h (1 Bft)
16.03.2010 05:08 13,0 C 5,7 C 0,0 UV-I 0,0 C 57 % 94 % 0 % 1020,9 hPa 0,0 l/m 5,2 km/h (1 Bft) 0 min 3,8 km/h (1 Bft)
16.03.2010 05:10 13,0 C 5,7 C 0,0 UV-I 0,0 C 57 % 94 % 0 % 1020,9 hPa 0,0 l/m 4,4 km/h (1 Bft) 0 min 4,1 km/h (1 Bft)
16.03.2010 05:12 13,0 C 5,7 C 0,0 UV-I 0,0 C 57 % 94 % 0 % 1021,0 hPa 0,0 l/m 5,2 km/h (1 Bft) 0 min 5,5 km/h (1 Bft)
16.03.2010 05:14 12,9 C 5,7 C 0,0 UV-I 0,0 C 57 % 94 % 0 % 1021,0 hPa 0,0 l/m 4,4 km/h (1 Bft) 0 min 3,6 km/h (1 Bft)
16.03.2010 05:16 13,0 C 5,7 C 0,0 UV-I 0,0 C 57 % 94 % 0 % 1021,0 hPa 0,0 l/m 4,0 km/h (1 Bft) 0 min 8,9 km/h (2 Bft)
16.03.2010 05:18 13,0 C 5,7 C 0,0 UV-I 0,0 C 57 % 94 % 0 % 1021,0 hPa 0,0 l/m 4,4 km/h (1 Bft) 0 min 6,3 km/h (2 Bft)
16.03.2010 05:20 13,0 C 5,7 C 0,0 UV-I 0,0 C 57 % 94 % 0 % 1021,0 hPa 0,0 l/m 4,8 km/h (1 Bft) 0 min 5,1 km/h (1 Bft)
16.03.2010 05:22 13,0 C 5,8 C 0,0 UV-I 0,0 C 57 % 94 % 0 % 1021,0 hPa 0,0 l/m 4,8 km/h (1 Bft) 0 min 4,6 km/h (1 Bft)
16.03.2010 05:24 13,0 C 5,7 C 0,0 UV-I 0,0 C 57 % 94 % 0 % 1021,0 hPa 0,0 l/m 5,6 km/h (1 Bft) 0 min 3,6 km/h (1 Bft)
16.03.2010 05:26 13,0 C 5,8 C 0,0 UV-I 0,0 C 57 % 93 % 0 % 1021,0 hPa 0,0 l/m 6,4 km/h (2 Bft) 0 min 12,3 km/h (3 Bft)
16.03.2010 05:28 13,0 C 5,8 C 0,0 UV-I 0,0 C 57 % 93 % 0 % 1021,0 hPa 0,0 l/m 6,8 km/h (2 Bft) 0 min 0,0 km/h (0 Bft)
16.03.2010 05:30 13,0 C 5,8 C 0,0 UV-I 0,0 C 57 % 94 % 0 % 1021,0 hPa 0,0 l/m 6,0 km/h (2 Bft) 0 min 7,9 km/h (2 Bft)
16.03.2010 05:32 13,0 C 5,8 C 0,0 UV-I 0,0 C 57 % 93 % 0 % 1021,3 hPa 0,0 l/m 6,0 km/h (2 Bft) 0 min 5,3 km/h (1 Bft)
16.03.2010 05:34 13,0 C 5,7 C 0,0 UV-I 0,0 C 57 % 93 % 0 % 1021,3 hPa 0,0 l/m 6,0 km/h (2 Bft) 0 min 0,0 km/h (0 Bft)
16.03.2010 05:36 13,0 C 5,8 C 0,0 UV-I 0,0 C 57 % 93 % 0 % 1021,3 hPa 0,0 l/m 5,2 km/h (1 Bft) 0 min 0,0 km/h (0 Bft)
16.03.2010 05:38 12,9 C 5,8 C 0,0 UV-I 0,0 C 57 % 93 % 0 % 1021,3 hPa 0,0 l/m 3,6 km/h (1 Bft) 0 min 3,8 km/h (1 Bft)
16.03.2010 05:40 12,9 C 5,7 C 0,0 UV-I 0,0 C 57 % 93 % 0 % 1021,3 hPa 0,0 l/m 3,6 km/h (1 Bft) 0 min 0,0 km/h (0 Bft)
16.03.2010 05:42 12,9 C 5,7 C 0,0 UV-I 0,0 C 57 % 93 % 0 % 1021,3 hPa 0,0 l/m 2,8 km/h (1 Bft) 0 min 3,4 km/h (1 Bft)
16.03.2010 05:44 13,0 C 5,7 C 0,0 UV-I 0,0 C 57 % 93 % 0 % 1021,3 hPa 0,0 l/m 2,0 km/h (1 Bft) 0 min 3,1 km/h (1 Bft)
16.03.2010 05:46 13,0 C 5,7 C 0,0 UV-I 0,0 C 57 % 93 % 0 % 1021,3 hPa 0,0 l/m 3,2 km/h (1 Bft) 0 min 3,4 km/h (1 Bft)
16.03.2010 05:48 13,0 C 5,7 C 0,0 UV-I 0,0 C 57 % 93 % 0 % 1021,3 hPa 0,0 l/m 3,6 km/h (1 Bft) 0 min 3,6 km/h (1 Bft)
16.03.2010 05:50 13,0 C 5,7 C 0,0 UV-I 0,0 C 57 % 93 % 0 % 1021,3 hPa 0,0 l/m 2,8 km/h (1 Bft) 0 min 0,0 km/h (0 Bft)
16.03.2010 05:52 13,0 C 5,7 C 0,0 UV-I 0,0 C 57 % 93 % 0 % 1021,3 hPa 0,0 l/m 3,6 km/h (1 Bft) 0 min 5,5 km/h (1 Bft)
16.03.2010 05:54 13,0 C 5,7 C 0,0 UV-I 0,0 C 57 % 93 % 0 % 1021,3 hPa 0,0 l/m 4,0 km/h (1 Bft) 0 min 2,9 km/h (1 Bft)
16.03.2010 05:56 13,0 C 5,7 C 0,0 UV-I 0,0 C 57 % 93 % 0 % 1021,3 hPa 0,0 l/m 4,0 km/h (1 Bft) 0 min 4,8 km/h (1 Bft)
16.03.2010 05:58 12,9 C 5,7 C 0,0 UV-I 0,0 C 57 % 93 % 0 % 1021,3 hPa 0,0 l/m 4,4 km/h (1 Bft) 0 min 0,0 km/h (0 Bft)
16.03.2010 06:00 13,0 C 5,7 C 0,0 UV-I 0,0 C 57 % 93 % 0 % 1021,3 hPa 0,0 l/m 4,0 km/h (1 Bft) 0 min 0,0 km/h (0 Bft)
16.03.2010 06:02 13,0 C 5,7 C 0,0 UV-I 0,0 C 57 % 93 % 0 % 1021,3 hPa 0,0 l/m 4,4 km/h (1 Bft) 0 min 4,6 km/h (1 Bft)
16.03.2010 06:04 13,0 C 5,7 C 0,0 UV-I 0,0 C 57 % 93 % 0 % 1021,3 hPa 0,0 l/m 4,4 km/h (1 Bft) 0 min 4,6 km/h (1 Bft)
16.03.2010 06:06 12,9 C 5,7 C 0,0 UV-I 0,0 C 57 % 93 % 0 % 1021,3 hPa 0,0 l/m 3,6 km/h (1 Bft) 0 min 3,1 km/h (1 Bft)
16.03.2010 06:08 13,0 C 5,7 C 0,0 UV-I 0,0 C 57 % 93 % 0 % 1021,3 hPa 0,0 l/m 2,4 km/h (1 Bft) 0 min 4,6 km/h (1 Bft)
16.03.2010 06:10 12,9 C 5,7 C 0,0 UV-I 0,0 C 57 % 93 % 0 % 1021,3 hPa 0,0 l/m 3,2 km/h (1 Bft) 0 min 11,3 km/h (2 Bft)
16.03.2010 06:12 12,9 C 5,7 C 0,0 UV-I 0,0 C 57 % 93 % 0 % 1021,6 hPa 0,0 l/m 4,0 km/h (1 Bft) 0 min 0,0 km/h (0 Bft)
16.03.2010 06:14 13,1 C 5,8 C 0,0 UV-I 0,0 C 57 % 93 % 0 % 1021,6 hPa 0,0 l/m 3,2 km/h (1 Bft) 0 min 0,0 km/h (0 Bft)
16.03.2010 06:16 12,9 C 5,7 C 0,0 UV-I 0,0 C 57 % 93 % 0 % 1021,6 hPa 0,0 l/m 2,8 km/h (1 Bft) 0 min 0,0 km/h (0 Bft)
16.03.2010 06:18 12,9 C 5,7 C 0,0 UV-I 0,0 C 57 % 93 % 0 % 1021,6 hPa 0,0 l/m 2,8 km/h (1 Bft) 0 min 2,9 km/h (1 Bft)
16.03.2010 06:20 12,9 C 5,7 C 0,0 UV-I 0,0 C 57 % 93 % 0 % 1021,6 hPa 0,0 l/m 2,4 km/h (1 Bft) 0 min 0,0 km/h (0 Bft)
16.03.2010 06:22 12,9 C 5,7 C 0,0 UV-I 0,0 C 57 % 93 % 0 % 1021,6 hPa 0,0 l/m 1,6 km/h (1 Bft) 0 min 0,0 km/h (0 Bft)
16.03.2010 06:24 12,9 C 5,7 C 0,0 UV-I 0,0 C 57 % 93 % 0 % 1021,6 hPa 0,0 l/m 1,2 km/h (1 Bft) 0 min 0,0 km/h (0 Bft)
16.03.2010 06:26 12,9 C 5,7 C 0,0 UV-I 0,0 C 57 % 93 % 0 % 1021,6 hPa 0,0 l/m 1,6 km/h (1 Bft) 0 min 4,3 km/h (1 Bft)
16.03.2010 06:28 13,1 C 5,7 C 0,0 UV-I 0,0 C 57 % 93 % 0 % 1021,6 hPa 0,0 l/m 2,4 km/h (1 Bft) 0 min 0,0 km/h (0 Bft)
16.03.2010 06:30 12,9 C 5,7 C 0,0 UV-I 0,0 C 57 % 93 % 0 % 1021,6 hPa 0,0 l/m 2,4 km/h (1 Bft) 0 min 2,9 km/h (1 Bft)
16.03.2010 06:32 12,9 C 5,7 C 0,0 UV-I 0,0 C 57 % 93 % 0 % 1021,9 hPa 0,0 l/m 2,4 km/h (1 Bft) 0 min 5,3 km/h (1 Bft)
16.03.2010 06:34 12,9 C 5,7 C 0,0 UV-I 0,0 C 57 % 93 % 0 % 1021,9 hPa 0,0 l/m 3,2 km/h (1 Bft) 0 min 4,8 km/h (1 Bft)
16.03.2010 06:36 12,9 C 5,7 C 0,0 UV-I 0,0 C 57 % 93 % 0 % 1021,9 hPa 0,0 l/m 3,6 km/h (1 Bft) 0 min 5,8 km/h (2 Bft)
16.03.2010 06:38 12,9 C 5,7 C 0,0 UV-I 0,0 C 57 % 93 % 0 % 1021,9 hPa 0,0 l/m 2,8 km/h (1 Bft) 0 min 0,0 km/h (0 Bft)
16.03.2010 06:40 13,0 C 5,7 C 0,0 UV-I 0,0 C 57 % 93 % 0 % 1021,9 hPa 0,0 l/m 2,8 km/h (1 Bft) 0 min 0,0 km/h (0 Bft)
16.03.2010 06:42 12,9 C 5,7 C 0,0 UV-I 0,0 C 57 % 93 % 0 % 1021,9 hPa 0,0 l/m 2,8 km/h (1 Bft) 0 min 0,0 km/h (0 Bft)
16.03.2010 06:44 12,9 C 5,8 C 0,0 UV-I 0,0 C 57 % 93 % 0 % 1021,9 hPa 0,0 l/m 2,4 km/h (1 Bft) 0 min 6,7 km/h (2 Bft)
16.03.2010 06:46 13,0 C 5,7 C 0,0 UV-I 0,0 C 57 % 93 % 0 % 1021,9 hPa 0,0 l/m 2,4 km/h (1 Bft) 0 min 0,0 km/h (0 Bft)
16.03.2010 06:48 12,9 C 5,7 C 0,0 UV-I 0,0 C 57 % 93 % 0 % 1021,9 hPa 0,0 l/m 1,6 km/h (1 Bft) 0 min 0,0 km/h (0 Bft)
16.03.2010 06:50 12,9 C 5,7 C 0,0 UV-I 0,0 C 57 % 93 % 0 % 1021,9 hPa 0,0 l/m 2,0 km/h (1 Bft) 0 min 0,0 km/h (0 Bft)
16.03.2010 06:52 12,9 C 5,7 C 0,0 UV-I 0,0 C 57 % 93 % 0 % 1021,9 hPa 0,0 l/m 2,4 km/h (1 Bft) 0 min 4,3 km/h (1 Bft)
16.03.2010 06:54 12,9 C 5,7 C 0,0 UV-I 0,0 C 57 % 93 % 0 % 1021,9 hPa 0,0 l/m 2,8 km/h (1 Bft) 0 min 3,6 km/h (1 Bft)
16.03.2010 06:56 12,9 C 5,7 C 0,0 UV-I 0,0 C 57 % 93 % 0 % 1021,9 hPa 0,0 l/m 2,8 km/h (1 Bft) 0 min 5,1 km/h (1 Bft)
16.03.2010 06:58 13,0 C 5,8 C 0,0 UV-I 0,0 C 57 % 93 % 0 % 1021,9 hPa 0,0 l/m 3,6 km/h (1 Bft) 0 min 4,1 km/h (1 Bft)
16.03.2010 07:00 13,0 C 5,8 C 0,0 UV-I 0,0 C 57 % 93 % 0 % 1021,9 hPa 0,0 l/m 4,8 km/h (1 Bft) 0 min 6,5 km/h (2 Bft)
16.03.2010 07:02 12,9 C 5,7 C 0,0 UV-I 0,0 C 57 % 93 % 0 % 1021,9 hPa 0,0 l/m 6,0 km/h (2 Bft) 0 min 5,5 km/h (1 Bft)
16.03.2010 07:04 12,9 C 5,7 C 0,0 UV-I 0,0 C 57 % 93 % 0 % 1021,9 hPa 0,0 l/m 6,4 km/h (2 Bft) 0 min 5,3 km/h (1 Bft)
16.03.2010 07:06 12,9 C 5,6 C 0,0 UV-I 0,0 C 57 % 93 % 0 % 1021,9 hPa 0,0 l/m 7,2 km/h (2 Bft) 0 min 2,6 km/h (1 Bft)
16.03.2010 07:08 12,9 C 5,6 C 0,0 UV-I 0,0 C 57 % 93 % 0 % 1021,9 hPa 0,0 l/m 6,4 km/h (2 Bft) 0 min 2,4 km/h (1 Bft)
16.03.2010 07:10 13,0 C 5,6 C 0,0 UV-I 0,0 C 57 % 93 % 0 % 1021,9 hPa 0,0 l/m 6,0 km/h (2 Bft) 0 min 4,1 km/h (1 Bft)
16.03.2010 07:12 13,0 C 5,7 C 0,0 UV-I 0,0 C 57 % 93 % 0 % 1022,3 hPa 0,0 l/m 6,0 km/h (2 Bft) 0 min 3,8 km/h (1 Bft)
16.03.2010 07:14 12,9 C 5,7 C 0,0 UV-I 0,0 C 57 % 93 % 0 % 1022,3 hPa 0,0 l/m 4,8 km/h (1 Bft) 0 min 5,5 km/h (1 Bft)
16.03.2010 07:16 12,9 C 5,5 C 0,0 UV-I 0,0 C 57 % 93 % 0 % 1022,3 hPa 0,0 l/m 4,0 km/h (1 Bft) 0 min 0,0 km/h (0 Bft)
16.03.2010 07:18 12,9 C 5,5 C 0,0 UV-I 0,0 C 57 % 93 % 0 % 1022,3 hPa 0,0 l/m 3,6 km/h (1 Bft) 0 min 0,0 km/h (0 Bft)
16.03.2010 07:20 12,9 C 5,5 C 0,0 UV-I 0,0 C 57 % 93 % 0 % 1022,3 hPa 0,0 l/m 3,2 km/h (1 Bft) 0 min 0,0 km/h (0 Bft)
16.03.2010 07:22 13,1 C 5,5 C 0,0 UV-I 0,0 C 57 % 93 % 0 % 1022,3 hPa 0,0 l/m 2,0 km/h (1 Bft) 0 min 0,0 km/h (0 Bft)
16.03.2010 07:24 13,1 C 5,5 C 0,0 UV-I 0,0 C 57 % 93 % 0 % 1022,3 hPa 0,0 l/m 2,0 km/h (1 Bft) 0 min 3,1 km/h (1 Bft)
16.03.2010 07:26 13,1 C 5,5 C 0,0 UV-I 0,0 C 57 % 93 % 0 % 1022,3 hPa 0,0 l/m 1,6 km/h (1 Bft) 0 min 5,3 km/h (1 Bft)
16.03.2010 07:28 13,1 C 5,5 C 0,0 UV-I 0,0 C 57 % 93 % 0 % 1022,3 hPa 0,0 l/m 2,4 km/h (1 Bft) 0 min 2,9 km/h (1 Bft)
16.03.2010 07:30 12,9 C 5,4 C 0,0 UV-I 0,0 C 57 % 93 % 0 % 1022,3 hPa 0,0 l/m 3,2 km/h (1 Bft) 0 min 2,9 km/h (1 Bft)
16.03.2010 07:32 12,9 C 5,5 C 0,0 UV-I 0,0 C 57 % 93 % 0 % 1022,6 hPa 0,0 l/m 3,6 km/h (1 Bft) 0 min 3,6 km/h (1 Bft)
16.03.2010 07:34 13,1 C 5,4 C 0,0 UV-I 0,0 C 57 % 93 % 0 % 1022,6 hPa 0,0 l/m 3,6 km/h (1 Bft) 0 min 3,8 km/h (1 Bft)
16.03.2010 07:36 13,1 C 5,5 C 0,0 UV-I 0,0 C 57 % 93 % 0 % 1022,6 hPa 0,0 l/m 4,0 km/h (1 Bft) 0 min 2,4 km/h (1 Bft)
16.03.2010 07:38 12,9 C 5,5 C 0,0 UV-I 0,0 C 57 % 93 % 0 % 1022,6 hPa 0,0 l/m 4,0 km/h (1 Bft) 0 min 6,5 km/h (2 Bft)
16.03.2010 07:40 13,1 C 5,5 C 0,0 UV-I 0,0 C 57 % 93 % 0 % 1022,6 hPa 0,0 l/m 3,6 km/h (1 Bft) 0 min 5,1 km/h (1 Bft)
16.03.2010 07:42 13,1 C 5,3 C 0,0 UV-I 0,0 C 57 % 93 % 0 % 1022,6 hPa 0,0 l/m 3,6 km/h (1 Bft) 0 min 4,3 km/h (1 Bft)
16.03.2010 07:44 13,1 C 5,5 C 0,0 UV-I 0,0 C 57 % 93 % 0 % 1022,6 hPa 0,0 l/m 4,0 km/h (1 Bft) 0 min 0,0 km/h (0 Bft)
16.03.2010 07:46 13,1 C 5,5 C 0,0 UV-I 0,0 C 57 % 93 % 0 % 1022,6 hPa 0,0 l/m 3,2 km/h (1 Bft) 0 min 0,0 km/h (0 Bft)
16.03.2010 07:48 13,1 C 5,5 C 0,0 UV-I 0,0 C 56 % 93 % 0 % 1022,6 hPa 0,0 l/m 2,8 km/h (1 Bft) 0 min 0,0 km/h (0 Bft)
16.03.2010 07:50 13,1 C 5,3 C 0,0 UV-I 0,0 C 57 % 93 % 0 % 1022,6 hPa 0,0 l/m 2,4 km/h (1 Bft) 0 min 3,8 km/h (1 Bft)
16.03.2010 07:52 13,1 C 5,5 C 0,0 UV-I 0,0 C 57 % 93 % 0 % 1022,6 hPa 0,0 l/m 2,0 km/h (1 Bft) 0 min 4,3 km/h (1 Bft)
16.03.2010 07:54 13,1 C 5,5 C 0,0 UV-I 0,0 C 57 % 93 % 0 % 1022,6 hPa 0,0 l/m 2,0 km/h (1 Bft) 0 min 5,8 km/h (2 Bft)
16.03.2010 07:56 13,1 C 5,3 C 0,0 UV-I 0,0 C 56 % 93 % 0 % 1022,6 hPa 0,0 l/m 2,0 km/h (1 Bft) 0 min 0,0 km/h (0 Bft)
16.03.2010 07:58 13,1 C 5,3 C 0,0 UV-I 0,0 C 56 % 92 % 0 % 1022,6 hPa 0,0 l/m 3,2 km/h (1 Bft) 0 min 3,1 km/h (1 Bft)
16.03.2010 08:00 13,1 C 5,3 C 0,0 UV-I 0,0 C 56 % 92 % 0 % 1022,6 hPa 0,0 l/m 3,2 km/h (1 Bft) 0 min 3,6 km/h (1 Bft)
16.03.2010 08:02 13,1 C 5,4 C 0,0 UV-I 0,0 C 56 % 92 % 0 % 1022,6 hPa 0,0 l/m 4,0 km/h (1 Bft) 0 min 2,4 km/h (1 Bft)
16.03.2010 08:04 13,1 C 5,4 C 0,0 UV-I 0,0 C 56 % 92 % 0 % 1022,6 hPa 0,0 l/m 4,4 km/h (1 Bft) 0 min 7,9 km/h (2 Bft)
16.03.2010 08:06 13,1 C 5,3 C 0,0 UV-I 0,0 C 56 % 92 % 0 % 1022,6 hPa 0,0 l/m 4,0 km/h (1 Bft) 0 min 2,6 km/h (1 Bft)
16.03.2010 08:08 13,1 C 5,4 C 0,0 UV-I 0,0 C 56 % 92 % 0 % 1022,6 hPa 0,0 l/m 4,0 km/h (1 Bft) 0 min 4,6 km/h (1 Bft)
16.03.2010 08:10 13,2 C 5,3 C 0,0 UV-I 0,0 C 56 % 92 % 0 % 1022,6 hPa 0,0 l/m 3,6 km/h (1 Bft) 0 min 3,4 km/h (1 Bft)
16.03.2010 08:12 13,2 C 5,3 C 0,0 UV-I 0,0 C 56 % 92 % 0 % 1023,2 hPa 0,0 l/m 3,6 km/h (1 Bft) 0 min 2,9 km/h (1 Bft)
16.03.2010 08:14 13,2 C 5,3 C 0,1 UV-I 0,0 C 56 % 92 % 0 % 1023,2 hPa 0,0 l/m 3,6 km/h (1 Bft) 0 min 2,4 km/h (1 Bft)
16.03.2010 08:16 13,2 C 5,3 C 0,1 UV-I 0,0 C 56 % 92 % 0 % 1023,2 hPa 0,0 l/m 3,6 km/h (1 Bft) 0 min 3,4 km/h (1 Bft)
16.03.2010 08:18 13,2 C 5,3 C 0,1 UV-I 0,0 C 56 % 92 % 0 % 1023,2 hPa 0,0 l/m 3,2 km/h (1 Bft) 0 min 0,0 km/h (0 Bft)
16.03.2010 08:20 13,2 C 5,3 C 0,0 UV-I 0,0 C 56 % 92 % 0 % 1023,2 hPa 0,0 l/m 4,0 km/h (1 Bft) 0 min 4,6 km/h (1 Bft)
16.03.2010 08:22 13,2 C 5,4 C 0,0 UV-I 0,0 C 56 % 92 % 0 % 1023,2 hPa 0,0 l/m 3,6 km/h (1 Bft) 0 min 4,3 km/h (1 Bft)
16.03.2010 08:24 13,2 C 5,3 C 0,1 UV-I 0,1 C 56 % 92 % 3 % 1023,2 hPa 0,0 l/m 2,8 km/h (1 Bft) 0 min 0,0 km/h (0 Bft)
16.03.2010 08:26 13,2 C 5,5 C 0,1 UV-I 0,0 C 56 % 92 % 0 % 1023,2 hPa 0,0 l/m 2,4 km/h (1 Bft) 0 min 0,0 km/h (0 Bft)
16.03.2010 08:28 13,2 C 5,5 C 0,1 UV-I 0,1 C 56 % 92 % 3 % 1023,2 hPa 0,0 l/m 2,4 km/h (1 Bft) 0 min 0,0 km/h (0 Bft)
16.03.2010 08:30 13,2 C 5,5 C 0,1 UV-I 0,1 C 56 % 92 % 3 % 1023,2 hPa 0,0 l/m 3,2 km/h (1 Bft) 0 min 7,0 km/h (2 Bft)
16.03.2010 08:32 13,2 C 5,5 C 0,1 UV-I 0,2 C 56 % 92 % 6 % 1023,6 hPa 0,0 l/m 3,6 km/h (1 Bft) 0 min 5,5 km/h (1 Bft)
16.03.2010 08:34 13,2 C 5,5 C 0,2 UV-I 0,2 C 56 % 92 % 6 % 1023,6 hPa 0,0 l/m 5,2 km/h (1 Bft) 0 min 11,5 km/h (2 Bft)
16.03.2010 08:36 13,2 C 5,5 C 0,2 UV-I 0,2 C 56 % 91 % 6 % 1023,6 hPa 0,0 l/m 7,2 km/h (2 Bft) 0 min 7,2 km/h (2 Bft)
16.03.2010 08:38 13,2 C 5,5 C 0,2 UV-I 0,2 C 56 % 91 % 6 % 1023,6 hPa 0,0 l/m 7,6 km/h (2 Bft) 0 min 4,6 km/h (1 Bft)
16.03.2010 08:40 13,2 C 5,4 C 0,1 UV-I 0,2 C 56 % 91 % 6 % 1023,6 hPa 0,0 l/m 8,4 km/h (2 Bft) 0 min 6,3 km/h (2 Bft)
16.03.2010 08:42 13,2 C 5,4 C 0,1 UV-I 0,3 C 56 % 91 % 9 % 1023,6 hPa 0,0 l/m 8,0 km/h (2 Bft) 0 min 5,3 km/h (1 Bft)
16.03.2010 08:44 13,2 C 5,5 C 0,2 UV-I 0,2 C 56 % 91 % 6 % 1023,6 hPa 0,0 l/m 7,2 km/h (2 Bft) 0 min 2,6 km/h (1 Bft)
16.03.2010 08:46 13,2 C 5,5 C 0,2 UV-I 0,2 C 56 % 91 % 6 % 1023,6 hPa 0,0 l/m 5,6 km/h (1 Bft) 0 min 0,0 km/h (0 Bft)
16.03.2010 08:48 13,2 C 5,5 C 0,2 UV-I 0,3 C 56 % 91 % 9 % 1023,6 hPa 0,0 l/m 5,6 km/h (1 Bft) 0 min 3,4 km/h (1 Bft)
16.03.2010 08:52 13,1 C 5,5 C 0,1 UV-I 0,4 C 56 % 91 % 11 % 1023,6 hPa 0,0 l/m 4,8 km/h (1 Bft) 0 min 6,5 km/h (2 Bft)
16.03.2010 08:54 13,1 C 5,4 C 0,0 UV-I 0,5 C 56 % 91 % 14 % 1023,6 hPa 0,0 l/m 4,4 km/h (1 Bft) 0 min 4,1 km/h (1 Bft)
16.03.2010 08:56 13,1 C 5,5 C 0,0 UV-I 0,4 C 56 % 91 % 11 % 1023,6 hPa 0,0 l/m 4,8 km/h (1 Bft) 0 min 4,1 km/h (1 Bft)
16.03.2010 08:58 13,1 C 5,5 C 0,0 UV-I 0,5 C 56 % 91 % 14 % 1023,6 hPa 0,0 l/m 4,8 km/h (1 Bft) 0 min 2,6 km/h (1 Bft)
16.03.2010 09:00 13,1 C 5,4 C 0,1 UV-I 0,6 C 56 % 91 % 17 % 1023,6 hPa 0,0 l/m 5,2 km/h (1 Bft) 0 min 4,6 km/h (1 Bft)
16.03.2010 09:02 13,1 C 5,5 C 0,1 UV-I 0,5 C 56 % 91 % 14 % 1023,6 hPa 0,0 l/m 5,6 km/h (1 Bft) 0 min 5,3 km/h (1 Bft)
16.03.2010 09:04 13,1 C 5,5 C 0,1 UV-I 0,5 C 56 % 91 % 14 % 1023,6 hPa 0,0 l/m 5,6 km/h (1 Bft) 0 min 7,7 km/h (2 Bft)
16.03.2010 09:06 13,1 C 5,5 C 0,1 UV-I 0,5 C 56 % 91 % 14 % 1023,6 hPa 0,0 l/m 5,6 km/h (1 Bft) 0 min 4,6 km/h (1 Bft)
16.03.2010 09:08 13,1 C 5,5 C 0,1 UV-I 0,5 C 56 % 91 % 14 % 1023,6 hPa 0,0 l/m 5,2 km/h (1 Bft) 0 min 4,6 km/h (1 Bft)
16.03.2010 09:10 13,3 C 5,5 C 0,1 UV-I 0,5 C 56 % 91 % 14 % 1023,6 hPa 0,0 l/m 5,6 km/h (1 Bft) 0 min 0,0 km/h (0 Bft)
16.03.2010 09:12 13,1 C 5,5 C 0,1 UV-I 0,5 C 56 % 91 % 14 % 1024,4 hPa 0,0 l/m 5,2 km/h (1 Bft) 0 min 6,7 km/h (2 Bft)
16.03.2010 09:14 13,1 C 5,5 C 0,0 UV-I 0,5 C 56 % 90 % 14 % 1024,4 hPa 0,0 l/m 4,8 km/h (1 Bft) 0 min 2,4 km/h (1 Bft)
16.03.2010 09:16 13,3 C 5,5 C 0,0 UV-I 0,5 C 56 % 90 % 14 % 1024,4 hPa 0,0 l/m 4,0 km/h (1 Bft) 0 min 0,0 km/h (0 Bft)
16.03.2010 09:18 13,3 C 5,6 C 0,0 UV-I 0,4 C 55 % 90 % 11 % 1024,4 hPa 0,0 l/m 4,0 km/h (1 Bft) 0 min 0,0 km/h (0 Bft)
16.03.2010 09:20 13,3 C 5,5 C 0,0 UV-I 0,5 C 55 % 90 % 14 % 1024,4 hPa 0,0 l/m 3,2 km/h (1 Bft) 0 min 2,6 km/h (1 Bft)
16.03.2010 09:22 13,3 C 5,6 C 0,0 UV-I 0,4 C 55 % 90 % 11 % 1024,4 hPa 0,0 l/m 2,8 km/h (1 Bft) 0 min 2,6 km/h (1 Bft)
16.03.2010 09:24 13,3 C 5,7 C 0,0 UV-I 0,3 C 55 % 90 % 9 % 1024,4 hPa 0,0 l/m 3,2 km/h (1 Bft) 0 min 4,6 km/h (1 Bft)
16.03.2010 09:26 13,3 C 5,6 C 0,0 UV-I 0,4 C 55 % 90 % 11 % 1024,4 hPa 0,0 l/m 2,8 km/h (1 Bft) 0 min 3,1 km/h (1 Bft)
16.03.2010 09:28 13,3 C 5,7 C 0,0 UV-I 0,3 C 55 % 90 % 9 % 1024,4 hPa 0,0 l/m 2,4 km/h (1 Bft) 0 min 3,1 km/h (1 Bft)
16.03.2010 09:30 13,3 C 5,6 C 0,1 UV-I 0,4 C 55 % 90 % 11 % 1024,4 hPa 0,0 l/m 2,4 km/h (1 Bft) 0 min 6,0 km/h (2 Bft)
16.03.2010 09:32 13,3 C 5,6 C 0,1 UV-I 0,4 C 55 % 90 % 11 % 1024,7 hPa 0,0 l/m 3,2 km/h (1 Bft) 0 min 3,6 km/h (1 Bft)
16.03.2010 09:36 13,3 C 5,7 C 0,3 UV-I 0,3 C 55 % 90 % 9 % 1024,7 hPa 0,0 l/m 3,6 km/h (1 Bft) 0 min 4,1 km/h (1 Bft)
16.03.2010 09:38 13,3 C 5,7 C 0,3 UV-I 0,3 C 55 % 90 % 9 % 1024,7 hPa 0,0 l/m 4,0 km/h (1 Bft) 0 min 3,8 km/h (1 Bft)
16.03.2010 09:40 13,2 C 5,6 C 0,2 UV-I 0,5 C 55 % 90 % 14 % 1024,7 hPa 0,0 l/m 4,0 km/h (1 Bft) 0 min 5,5 km/h (1 Bft)
16.03.2010 09:42 13,2 C 5,7 C 0,2 UV-I 0,5 C 55 % 90 % 14 % 1024,7 hPa 0,0 l/m 4,4 km/h (1 Bft) 0 min 5,5 km/h (1 Bft)
16.03.2010 09:44 13,3 C 5,6 C 0,2 UV-I 0,5 C 55 % 90 % 14 % 1024,7 hPa 0,0 l/m 4,4 km/h (1 Bft) 0 min 6,5 km/h (2 Bft)
16.03.2010 09:46 13,3 C 5,6 C 0,2 UV-I 0,6 C 55 % 90 % 17 % 1024,7 hPa 0,0 l/m 4,0 km/h (1 Bft) 0 min 0,0 km/h (0 Bft)
16.03.2010 09:48 13,3 C 5,6 C 0,2 UV-I 0,7 C 55 % 90 % 20 % 1024,7 hPa 0,0 l/m 4,0 km/h (1 Bft) 0 min 4,3 km/h (1 Bft)
16.03.2010 09:50 13,2 C 5,7 C 0,4 UV-I 0,7 C 55 % 90 % 20 % 1024,7 hPa 0,0 l/m 4,0 km/h (1 Bft) 0 min 0,0 km/h (0 Bft)
16.03.2010 09:52 13,3 C 5,7 C 0,4 UV-I 0,7 C 55 % 90 % 20 % 1024,6 hPa 0,0 l/m 3,6 km/h (1 Bft) 0 min 3,8 km/h (1 Bft)
16.03.2010 09:54 13,2 C 5,7 C 0,5 UV-I 0,8 C 55 % 90 % 23 % 1024,6 hPa 0,0 l/m 2,4 km/h (1 Bft) 0 min 0,0 km/h (0 Bft)
16.03.2010 09:56 13,2 C 5,7 C 0,5 UV-I 0,9 C 55 % 90 % 26 % 1024,6 hPa 0,0 l/m 2,4 km/h (1 Bft) 0 min 5,8 km/h (2 Bft)
16.03.2010 09:58 13,2 C 5,9 C 0,5 UV-I 0,8 C 55 % 89 % 23 % 1024,6 hPa 0,0 l/m 2,4 km/h (1 Bft) 0 min 2,9 km/h (1 Bft)
16.03.2010 10:00 13,2 C 5,9 C 0,5 UV-I 0,9 C 55 % 89 % 26 % 1024,6 hPa 0,0 l/m 2,4 km/h (1 Bft) 0 min 2,9 km/h (1 Bft)
16.03.2010 10:02 13,2 C 5,9 C 0,5 UV-I 1,0 C 55 % 89 % 29 % 1024,6 hPa 0,0 l/m 2,8 km/h (1 Bft) 0 min 2,4 km/h (1 Bft)
16.03.2010 10:04 13,4 C 5,9 C 0,9 UV-I 1,1 C 55 % 89 % 31 % 1024,6 hPa 0,0 l/m 4,0 km/h (1 Bft) 0 min 9,1 km/h (2 Bft)
16.03.2010 10:06 13,4 C 5,9 C 0,9 UV-I 1,1 C 55 % 89 % 31 % 1024,6 hPa 0,0 l/m 4,4 km/h (1 Bft) 0 min 2,4 km/h (1 Bft)
16.03.2010 10:08 13,4 C 5,9 C 0,9 UV-I 1,2 C 55 % 89 % 34 % 1024,6 hPa 0,0 l/m 4,4 km/h (1 Bft) 0 min 2,9 km/h (1 Bft)
16.03.2010 10:10 13,4 C 5,9 C 0,9 UV-I 1,2 C 55 % 89 % 34 % 1024,6 hPa 0,0 l/m 4,4 km/h (1 Bft) 0 min 0,0 km/h (0 Bft)
16.03.2010 10:12 13,4 C 6,0 C 0,9 UV-I 1,2 C 55 % 89 % 34 % 1025,1 hPa 0,0 l/m 4,0 km/h (1 Bft) 0 min 4,6 km/h (1 Bft)
16.03.2010 10:14 13,4 C 6,1 C 0,6 UV-I 1,1 C 55 % 90 % 31 % 1025,1 hPa 0,0 l/m 4,4 km/h (1 Bft) 0 min 3,4 km/h (1 Bft)
16.03.2010 10:16 13,4 C 6,1 C 0,6 UV-I 1,1 C 55 % 89 % 31 % 1025,1 hPa 0,0 l/m 4,0 km/h (1 Bft) 0 min 5,1 km/h (1 Bft)
16.03.2010 10:20 13,4 C 6,0 C 0,3 UV-I 1,0 C 55 % 89 % 29 % 1025,1 hPa 0,0 l/m 5,2 km/h (1 Bft) 0 min 7,9 km/h (2 Bft)
16.03.2010 10:22 13,4 C 6,0 C 0,3 UV-I 1,0 C 55 % 89 % 29 % 1025,1 hPa 0,0 l/m 6,0 km/h (2 Bft) 0 min 4,3 km/h (1 Bft)
16.03.2010 10:24 13,4 C 6,0 C 1,2 UV-I 1,0 C 55 % 89 % 29 % 1025,1 hPa 0,0 l/m 6,0 km/h (2 Bft) 0 min 3,4 km/h (1 Bft)
16.03.2010 10:26 13,4 C 6,0 C 1,2 UV-I 1,1 C 55 % 89 % 31 % 1025,1 hPa 0,0 l/m 5,6 km/h (1 Bft) 0 min 4,6 km/h (1 Bft)
16.03.2010 10:28 13,4 C 6,1 C 1,2 UV-I 1,1 C 55 % 89 % 31 % 1025,1 hPa 0,0 l/m 4,8 km/h (1 Bft) 0 min 4,1 km/h (1 Bft)
16.03.2010 10:30 13,3 C 6,1 C 1,8 UV-I 1,5 C 55 % 89 % 43 % 1025,1 hPa 0,0 l/m 4,8 km/h (1 Bft) 0 min 5,1 km/h (1 Bft)
16.03.2010 10:32 13,3 C 6,3 C 1,8 UV-I 1,6 C 55 % 89 % 46 % 1025,4 hPa 0,0 l/m 3,6 km/h (1 Bft) 0 min 5,5 km/h (1 Bft)
16.03.2010 10:34 13,3 C 6,3 C 2,0 UV-I 1,8 C 55 % 89 % 51 % 1025,4 hPa 0,0 l/m 4,4 km/h (1 Bft) 0 min 7,0 km/h (2 Bft)
16.03.2010 10:36 13,3 C 6,3 C 2,0 UV-I 1,9 C 55 % 88 % 54 % 1025,4 hPa 0,0 l/m 4,4 km/h (1 Bft) 0 min 0,0 km/h (0 Bft)
16.03.2010 10:38 13,3 C 6,3 C 2,0 UV-I 1,8 C 55 % 88 % 51 % 1025,4 hPa 0,0 l/m 4,4 km/h (1 Bft) 0 min 0,0 km/h (0 Bft)
16.03.2010 10:40 13,5 C 6,4 C 2,0 UV-I 1,7 C 55 % 88 % 49 % 1025,4 hPa 0,0 l/m 4,8 km/h (1 Bft) 0 min 5,3 km/h (1 Bft)
16.03.2010 10:42 13,5 C 6,5 C 2,0 UV-I 1,7 C 55 % 88 % 49 % 1025,4 hPa 0,0 l/m 4,4 km/h (1 Bft) 0 min 5,1 km/h (1 Bft)
16.03.2010 10:44 13,5 C 6,4 C 0,7 UV-I 1,8 C 55 % 88 % 51 % 1025,4 hPa 0,0 l/m 4,4 km/h (1 Bft) 0 min 3,4 km/h (1 Bft)
16.03.2010 10:48 13,5 C 6,4 C 0,7 UV-I 1,5 C 55 % 88 % 43 % 1025,4 hPa 0,0 l/m 5,2 km/h (1 Bft) 0 min 10,1 km/h (2 Bft)
16.03.2010 10:50 13,5 C 6,4 C 0,3 UV-I 1,3 C 55 % 87 % 37 % 1025,4 hPa 0,0 l/m 6,8 km/h (2 Bft) 0 min 10,6 km/h (2 Bft)
16.03.2010 10:52 13,5 C 6,4 C 0,3 UV-I 1,2 C 55 % 87 % 34 % 1025,7 hPa 0,0 l/m 7,2 km/h (2 Bft) 0 min 9,6 km/h (2 Bft)
16.03.2010 10:54 13,4 C 6,5 C 0,9 UV-I 1,0 C 55 % 88 % 29 % 1025,7 hPa 0,0 l/m 7,6 km/h (2 Bft) 0 min 4,6 km/h (1 Bft)
16.03.2010 10:56 13,4 C 6,4 C 0,9 UV-I 1,1 C 55 % 87 % 31 % 1025,7 hPa 0,0 l/m 7,2 km/h (2 Bft) 0 min 4,3 km/h (1 Bft)
16.03.2010 10:58 13,4 C 6,5 C 0,9 UV-I 0,9 C 55 % 88 % 26 % 1025,7 hPa 0,0 l/m 7,6 km/h (2 Bft) 0 min 6,3 km/h (2 Bft)
16.03.2010 11:02 13,4 C 6,4 C 0,8 UV-I 0,9 C 55 % 87 % 26 % 1025,7 hPa 0,0 l/m 6,8 km/h (2 Bft) 0 min 7,2 km/h (2 Bft)
16.03.2010 11:04 13,4 C 6,5 C 0,4 UV-I 0,8 C 55 % 87 % 23 % 1025,7 hPa 0,0 l/m 6,8 km/h (2 Bft) 0 min 4,8 km/h (1 Bft)
16.03.2010 11:05 13,4 C 6,4 C 0,4 UV-I 0,9 C 55 % 87 % 26 % 1025,7 hPa 0,0 l/m 6,4 km/h (2 Bft) 0 min 4,8 km/h (1 Bft)
16.03.2010 11:06 13,4 C 6,4 C 0,4 UV-I 0,9 C 55 % 87 % 26 % 1025,7 hPa 0,0 l/m 6,4 km/h (2 Bft) 0 min 4,8 km/h (1 Bft)
16.03.2010 11:08 13,6 C 6,4 C 0,4 UV-I 0,8 C 55 % 87 % 23 % 1025,7 hPa 0,0 l/m 7,2 km/h (2 Bft) 0 min 5,3 km/h (1 Bft)
16.03.2010 11:10 13,4 C 6,5 C 0,2 UV-I 0,5 C 54 % 87 % 14 % 1025,7 hPa 0,0 l/m 7,2 km/h (2 Bft) 0 min 2,6 km/h (1 Bft)
16.03.2010 11:12 13,4 C 6,4 C 0,2 UV-I 0,6 C 55 % 87 % 17 % 1025,8 hPa 0,0 l/m 6,8 km/h (2 Bft) 0 min 4,6 km/h (1 Bft)
16.03.2010 11:14 13,6 C 6,4 C 0,2 UV-I 0,5 C 54 % 87 % 14 % 1025,8 hPa 0,0 l/m 6,4 km/h (2 Bft) 0 min 0,0 km/h (0 Bft)
16.03.2010 11:16 13,4 C 6,4 C 0,2 UV-I 0,4 C 54 % 87 % 11 % 1025,8 hPa 0,0 l/m 6,0 km/h (2 Bft) 0 min 3,8 km/h (1 Bft)
16.03.2010 11:18 13,4 C 6,4 C 0,2 UV-I 0,4 C 54 % 87 % 11 % 1025,8 hPa 0,0 l/m 5,6 km/h (1 Bft) 0 min 4,1 km/h (1 Bft)
16.03.2010 11:22 13,4 C 6,4 C 0,5 UV-I 0,4 C 54 % 87 % 11 % 1025,8 hPa 0,0 l/m 4,8 km/h (1 Bft) 0 min 4,6 km/h (1 Bft)
16.03.2010 11:26 13,4 C 6,4 C 0,3 UV-I 0,5 C 54 % 86 % 14 % 1025,8 hPa 0,0 l/m 4,0 km/h (1 Bft) 0 min 4,3 km/h (1 Bft)
16.03.2010 11:28 13,6 C 6,4 C 0,3 UV-I 0,5 C 54 % 86 % 14 % 1025,8 hPa 0,0 l/m 4,0 km/h (1 Bft) 0 min 0,0 km/h (0 Bft)
16.03.2010 11:30 13,6 C 6,4 C 0,2 UV-I 0,4 C 54 % 86 % 11 % 1025,8 hPa 0,0 l/m 3,6 km/h (1 Bft) 0 min 3,1 km/h (1 Bft)
16.03.2010 11:32 13,6 C 6,4 C 0,2 UV-I 0,4 C 54 % 86 % 11 % 1026,0 hPa 0,0 l/m 2,8 km/h (1 Bft) 0 min 0,0 km/h (0 Bft)
16.03.2010 11:36 13,6 C 6,4 C 0,3 UV-I 0,5 C 54 % 86 % 14 % 1026,0 hPa 0,0 l/m 2,8 km/h (1 Bft) 0 min 6,3 km/h (2 Bft)
16.03.2010 11:38 13,6 C 6,4 C 0,3 UV-I 0,5 C 54 % 85 % 14 % 1026,0 hPa 0,0 l/m 2,4 km/h (1 Bft) 0 min 5,3 km/h (1 Bft)
16.03.2010 11:40 13,6 C 6,4 C 0,4 UV-I 0,5 C 54 % 85 % 14 % 1026,0 hPa 0,0 l/m 2,8 km/h (1 Bft) 0 min 6,3 km/h (2 Bft)
16.03.2010 11:42 13,6 C 6,4 C 0,4 UV-I 0,5 C 54 % 85 % 14 % 1026,0 hPa 0,0 l/m 2,8 km/h (1 Bft) 0 min 0,0 km/h (0 Bft)
16.03.2010 11:44 13,6 C 6,4 C 0,3 UV-I 0,5 C 54 % 85 % 14 % 1026,0 hPa 0,0 l/m 2,8 km/h (1 Bft) 0 min 4,1 km/h (1 Bft)
16.03.2010 11:46 13,6 C 6,4 C 0,3 UV-I 0,6 C 54 % 85 % 17 % 1026,0 hPa 0,0 l/m 2,8 km/h (1 Bft) 0 min 2,4 km/h (1 Bft)
16.03.2010 11:48 13,6 C 6,5 C 0,3 UV-I 0,5 C 54 % 85 % 14 % 1026,0 hPa 0,0 l/m 2,4 km/h (1 Bft) 0 min 6,7 km/h (2 Bft)
16.03.2010 11:50 13,4 C 6,5 C 0,1 UV-I 0,4 C 54 % 85 % 11 % 1026,0 hPa 0,0 l/m 2,8 km/h (1 Bft) 0 min 3,1 km/h (1 Bft)
16.03.2010 11:52 13,6 C 6,4 C 0,1 UV-I 0,4 C 54 % 85 % 11 % 1026,6 hPa 0,0 l/m 2,4 km/h (1 Bft) 0 min 5,8 km/h (2 Bft)
16.03.2010 11:56 13,6 C 6,4 C 0,0 UV-I 0,3 C 54 % 85 % 9 % 1026,6 hPa 0,0 l/m 2,8 km/h (1 Bft) 0 min 3,6 km/h (1 Bft)
16.03.2010 11:58 13,6 C 6,5 C 0,0 UV-I 0,1 C 54 % 85 % 3 % 1026,6 hPa 0,0 l/m 3,6 km/h (1 Bft) 0 min 6,5 km/h (2 Bft)
16.03.2010 12:00 13,6 C 6,4 C 0,0 UV-I 0,1 C 54 % 85 % 3 % 1026,6 hPa 0,0 l/m 2,4 km/h (1 Bft) 0 min 0,0 km/h (0 Bft)
16.03.2010 12:06 13,6 C 6,4 C 0,0 UV-I 0,0 C 54 % 85 % 0 % 1026,6 hPa 0,0 l/m 2,4 km/h (1 Bft) 0 min 5,3 km/h (1 Bft)
16.03.2010 12:08 13,6 C 6,4 C 0,0 UV-I 0,0 C 54 % 85 % 0 % 1026,6 hPa 0,0 l/m 3,2 km/h (1 Bft) 0 min 2,4 km/h (1 Bft)
16.03.2010 12:10 13,4 C 6,4 C 0,0 UV-I 0,0 C 54 % 85 % 0 % 1026,6 hPa 0,0 l/m 2,4 km/h (1 Bft) 0 min 0,0 km/h (0 Bft)
16.03.2010 12:14 13,4 C 6,4 C 0,0 UV-I 0,0 C 54 % 86 % 0 % 1026,6 hPa 0,0 l/m 3,2 km/h (1 Bft) 0 min 6,5 km/h (2 Bft)
16.03.2010 12:16 13,4 C 6,4 C 0,0 UV-I 0,0 C 54 % 86 % 0 % 1026,6 hPa 0,0 l/m 3,2 km/h (1 Bft) 0 min 3,6 km/h (1 Bft)
16.03.2010 12:18 13,5 C 6,3 C 0,0 UV-I 0,0 C 54 % 86 % 0 % 1026,6 hPa 0,0 l/m 2,8 km/h (1 Bft) 0 min 4,3 km/h (1 Bft)
16.03.2010 12:20 13,4 C 6,3 C 0,0 UV-I 0,0 C 54 % 86 % 0 % 1026,6 hPa 0,0 l/m 2,8 km/h (1 Bft) 0 min 0,0 km/h (0 Bft)
16.03.2010 12:22 13,5 C 6,3 C 0,0 UV-I 0,0 C 54 % 86 % 0 % 1026,6 hPa 0,0 l/m 3,6 km/h (1 Bft) 0 min 7,9 km/h (2 Bft)
16.03.2010 12:24 13,4 C 6,3 C 0,0 UV-I 0,0 C 54 % 86 % 0 % 1026,6 hPa 0,0 l/m 3,6 km/h (1 Bft) 0 min 0,0 km/h (0 Bft)
16.03.2010 12:26 13,5 C 6,3 C 0,0 UV-I 0,0 C 54 % 86 % 0 % 1026,6 hPa 0,0 l/m 3,2 km/h (1 Bft) 0 min 0,0 km/h (0 Bft)
16.03.2010 12:28 13,5 C 6,3 C 0,0 UV-I 0,0 C 54 % 86 % 0 % 1026,6 hPa 0,0 l/m 3,2 km/h (1 Bft) 0 min 6,5 km/h (2 Bft)
16.03.2010 12:30 13,5 C 6,2 C 0,0 UV-I 0,0 C 54 % 86 % 0 % 1026,6 hPa 0,0 l/m 3,2 km/h (1 Bft) 0 min 0,0 km/h (0 Bft)
16.03.2010 12:32 13,5 C 6,2 C 0,0 UV-I 0,0 C 54 % 86 % 0 % 1026,6 hPa 0,0 l/m 3,6 km/h (1 Bft) 0 min 5,3 km/h (1 Bft)
16.03.2010 12:34 13,5 C 6,3 C 0,2 UV-I 0,0 C 54 % 86 % 0 % 1026,6 hPa 0,0 l/m 4,4 km/h (1 Bft) 0 min 5,3 km/h (1 Bft)
16.03.2010 12:36 13,4 C 6,3 C 0,2 UV-I 0,0 C 54 % 86 % 0 % 1026,6 hPa 0,0 l/m 4,4 km/h (1 Bft) 0 min 4,3 km/h (1 Bft)
16.03.2010 12:38 13,4 C 6,2 C 0,2 UV-I 0,2 C 54 % 86 % 6 % 1026,6 hPa 0,0 l/m 5,6 km/h (1 Bft) 0 min 4,1 km/h (1 Bft)
16.03.2010 12:40 13,6 C 6,3 C 1,5 UV-I 0,4 C 54 % 86 % 11 % 1026,6 hPa 0,0 l/m 5,6 km/h (1 Bft) 0 min 6,5 km/h (2 Bft)
16.03.2010 12:42 13,6 C 6,3 C 1,5 UV-I 0,7 C 54 % 86 % 20 % 1026,6 hPa 0,0 l/m 5,6 km/h (1 Bft) 0 min 3,1 km/h (1 Bft)
16.03.2010 12:44 13,6 C 6,4 C 1,2 UV-I 0,9 C 54 % 86 % 26 % 1026,6 hPa 0,0 l/m 4,4 km/h (1 Bft) 0 min 0,0 km/h (0 Bft)
16.03.2010 12:46 13,6 C 6,4 C 1,2 UV-I 1,2 C 54 % 86 % 34 % 1026,6 hPa 0,0 l/m 4,4 km/h (1 Bft) 0 min 4,1 km/h (1 Bft)
16.03.2010 12:48 13,6 C 6,5 C 1,2 UV-I 1,4 C 54 % 86 % 40 % 1026,6 hPa 0,0 l/m 3,6 km/h (1 Bft) 0 min 2,6 km/h (1 Bft)
16.03.2010 12:50 13,6 C 6,5 C 3,0 UV-I 1,9 C 54 % 86 % 54 % 1026,6 hPa 0,0 l/m 3,2 km/h (1 Bft) 0 min 3,4 km/h (1 Bft)
16.03.2010 12:52 13,6 C 6,5 C 3,0 UV-I 2,6 C 54 % 86 % 74 % 1026,8 hPa 0,0 l/m 2,8 km/h (1 Bft) 0 min 4,8 km/h (1 Bft)
16.03.2010 12:58 13,6 C 6,7 C 5,2 UV-I 4,0 C 55 % 86 % 100 % 1026,8 hPa 0,0 l/m 4,0 km/h (1 Bft) 2 min 11,1 km/h (2 Bft)
16.03.2010 13:00 13,6 C 6,7 C 4,6 UV-I 4,1 C 55 % 86 % 100 % 1026,8 hPa 0,0 l/m 4,8 km/h (1 Bft) 2 min 0,0 km/h (0 Bft)
16.03.2010 13:02 13,8 C 6,8 C 4,6 UV-I 3,8 C 55 % 86 % 100 % 1026,8 hPa 0,0 l/m 4,8 km/h (1 Bft) 2 min 7,5 km/h (2 Bft)
16.03.2010 13:03 13,8 C 6,8 C 2,2 UV-I 3,6 C 55 % 86 % 100 % 1026,8 hPa 0,0 l/m 4,4 km/h (1 Bft) 1 min 0,0 km/h (0 Bft)
16.03.2010 13:08 13,8 C 7,0 C 2,0 UV-I 2,8 C 54 % 85 % 80 % 1026,8 hPa 0,0 l/m 6,0 km/h (2 Bft) 0 min 4,1 km/h (1 Bft)
16.03.2010 13:14 13,9 C 7,1 C 6,7 UV-I 3,1 C 54 % 83 % 89 % 1026,8 hPa 0,0 l/m 6,4 km/h (2 Bft) 2 min 8,7 km/h (2 Bft)
16.03.2010 13:16 13,9 C 7,1 C 6,7 UV-I 4,0 C 54 % 83 % 100 % 1026,8 hPa 0,0 l/m 8,0 km/h (2 Bft) 2 min 11,1 km/h (2 Bft)
16.03.2010 13:18 13,9 C 7,3 C 6,7 UV-I 3,7 C 54 % 83 % 100 % 1026,8 hPa 0,0 l/m 7,6 km/h (2 Bft) 2 min 6,3 km/h (2 Bft)
16.03.2010 13:20 13,8 C 7,2 C 3,0 UV-I 3,5 C 54 % 82 % 100 % 1026,8 hPa 0,0 l/m 8,0 km/h (2 Bft) 2 min 9,4 km/h (2 Bft)
16.03.2010 13:22 14,0 C 7,2 C 3,0 UV-I 3,0 C 54 % 82 % 86 % 1026,8 hPa 0,0 l/m 9,6 km/h (2 Bft) 2 min 7,2 km/h (2 Bft)
16.03.2010 13:24 14,0 C 7,3 C 1,9 UV-I 2,7 C 54 % 82 % 77 % 1026,8 hPa 0,0 l/m 10,4 km/h (2 Bft) 0 min 10,8 km/h (2 Bft)
16.03.2010 13:26 14,0 C 7,2 C 1,9 UV-I 2,5 C 54 % 82 % 71 % 1026,8 hPa 0,0 l/m 10,0 km/h (2 Bft) 0 min 8,7 km/h (2 Bft)
16.03.2010 13:28 14,0 C 7,2 C 1,9 UV-I 2,2 C 53 % 81 % 63 % 1026,8 hPa 0,0 l/m 10,0 km/h (2 Bft) 0 min 8,9 km/h (2 Bft)
16.03.2010 13:30 13,9 C 7,2 C 2,0 UV-I 1,9 C 53 % 81 % 54 % 1026,8 hPa 0,0 l/m 10,8 km/h (2 Bft) 0 min 7,2 km/h (2 Bft)
16.03.2010 13:32 14,0 C 7,2 C 2,0 UV-I 2,0 C 53 % 81 % 57 % 1027,0 hPa 0,0 l/m 9,2 km/h (2 Bft) 0 min 4,3 km/h (1 Bft)
16.03.2010 13:34 13,9 C 7,3 C 2,4 UV-I 1,9 C 53 % 81 % 54 % 1027,0 hPa 0,0 l/m 9,2 km/h (2 Bft) 0 min 11,1 km/h (2 Bft)
16.03.2010 13:36 13,9 C 7,3 C 2,4 UV-I 1,9 C 53 % 81 % 54 % 1027,0 hPa 0,0 l/m 9,2 km/h (2 Bft) 0 min 7,0 km/h (2 Bft)
16.03.2010 13:38 13,9 C 7,4 C 2,4 UV-I 1,8 C 53 % 81 % 51 % 1027,0 hPa 0,0 l/m 8,4 km/h (2 Bft) 0 min 4,6 km/h (1 Bft)
16.03.2010 13:40 13,9 C 7,3 C 2,2 UV-I 2,0 C 53 % 80 % 57 % 1027,0 hPa 0,0 l/m 8,0 km/h (2 Bft) 0 min 7,0 km/h (2 Bft)
16.03.2010 13:42 13,9 C 7,5 C 2,2 UV-I 1,8 C 53 % 80 % 51 % 1027,0 hPa 0,0 l/m 8,0 km/h (2 Bft) 0 min 12,3 km/h (3 Bft)
16.03.2010 13:44 13,9 C 7,5 C 2,2 UV-I 1,7 C 53 % 80 % 49 % 1027,0 hPa 0,0 l/m 8,8 km/h (2 Bft) 0 min 10,6 km/h (2 Bft)
16.03.2010 13:46 14,1 C 7,5 C 2,2 UV-I 1,6 C 53 % 80 % 46 % 1027,0 hPa 0,0 l/m 8,8 km/h (2 Bft) 0 min 7,7 km/h (2 Bft)
16.03.2010 13:48 14,1 C 7,4 C 2,2 UV-I 1,7 C 53 % 80 % 49 % 1027,0 hPa 0,0 l/m 8,0 km/h (2 Bft) 0 min 3,8 km/h (1 Bft)
16.03.2010 13:50 14,1 C 7,4 C 2,2 UV-I 1,7 C 53 % 80 % 49 % 1027,0 hPa 0,0 l/m 8,0 km/h (2 Bft) 0 min 6,5 km/h (2 Bft)
16.03.2010 13:52 14,1 C 7,5 C 2,2 UV-I 1,5 C 53 % 80 % 43 % 1026,9 hPa 0,0 l/m 7,2 km/h (2 Bft) 0 min 0,0 km/h (0 Bft)
16.03.2010 13:54 14,1 C 7,5 C 1,9 UV-I 1,5 C 53 % 80 % 43 % 1026,9 hPa 0,0 l/m 6,8 km/h (2 Bft) 0 min 6,5 km/h (2 Bft)
16.03.2010 13:56 14,1 C 7,5 C 1,9 UV-I 1,5 C 53 % 80 % 43 % 1026,9 hPa 0,0 l/m 6,0 km/h (2 Bft) 0 min 3,6 km/h (1 Bft)
16.03.2010 13:58 14,1 C 7,5 C 1,9 UV-I 1,7 C 53 % 80 % 49 % 1026,9 hPa 0,0 l/m 5,6 km/h (1 Bft) 0 min 0,0 km/h (0 Bft)
16.03.2010 14:00 14,1 C 7,6 C 2,8 UV-I 1,9 C 53 % 80 % 54 % 1026,9 hPa 0,0 l/m 5,6 km/h (1 Bft) 0 min 5,8 km/h (2 Bft)
16.03.2010 14:02 14,1 C 7,6 C 2,8 UV-I 2,4 C 53 % 80 % 69 % 1026,9 hPa 0,0 l/m 5,2 km/h (1 Bft) 0 min 5,3 km/h (1 Bft)
16.03.2010 14:06 14,1 C 7,9 C 7,5 UV-I 4,0 C 53 % 79 % 100 % 1026,9 hPa 0,0 l/m 6,8 km/h (2 Bft) 2 min 12,0 km/h (2 Bft)
16.03.2010 14:08 14,3 C 7,9 C 7,5 UV-I 4,3 C 53 % 79 % 100 % 1026,9 hPa 0,0 l/m 7,2 km/h (2 Bft) 2 min 10,3 km/h (2 Bft)
16.03.2010 14:10 14,4 C 7,9 C 6,6 UV-I 4,4 C 53 % 79 % 100 % 1026,9 hPa 0,0 l/m 8,4 km/h (2 Bft) 2 min 9,9 km/h (2 Bft)
16.03.2010 14:12 14,3 C 7,9 C 6,6 UV-I 5,1 C 53 % 79 % 100 % 1027,8 hPa 0,0 l/m 8,4 km/h (2 Bft) 2 min 7,0 km/h (2 Bft)
16.03.2010 14:14 14,6 C 8,0 C 8,6 UV-I 5,6 C 53 % 79 % 100 % 1027,8 hPa 0,0 l/m 8,4 km/h (2 Bft) 2 min 7,9 km/h (2 Bft)
16.03.2010 14:16 14,6 C 8,1 C 8,6 UV-I 6,1 C 53 % 79 % 100 % 1027,8 hPa 0,0 l/m 8,0 km/h (2 Bft) 2 min 8,7 km/h (2 Bft)
16.03.2010 14:18 14,7 C 8,3 C 8,6 UV-I 6,3 C 52 % 78 % 100 % 1027,8 hPa 0,0 l/m 7,6 km/h (2 Bft) 2 min 6,0 km/h (2 Bft)
16.03.2010 14:20 14,8 C 8,4 C 7,7 UV-I 6,4 C 52 % 79 % 100 % 1027,8 hPa 0,0 l/m 6,4 km/h (2 Bft) 2 min 5,3 km/h (1 Bft)
16.03.2010 14:22 14,8 C 8,4 C 7,7 UV-I 6,4 C 52 % 79 % 100 % 1027,8 hPa 0,0 l/m 6,0 km/h (2 Bft) 2 min 2,9 km/h (1 Bft)
16.03.2010 14:24 14,8 C 8,5 C 5,9 UV-I 6,4 C 52 % 79 % 100 % 1027,8 hPa 0,0 l/m 5,6 km/h (1 Bft) 2 min 3,4 km/h (1 Bft)
16.03.2010 14:26 15,0 C 8,7 C 5,9 UV-I 6,3 C 52 % 78 % 100 % 1027,8 hPa 0,0 l/m 6,8 km/h (2 Bft) 2 min 8,7 km/h (2 Bft)
16.03.2010 14:28 15,1 C 8,6 C 5,9 UV-I 6,1 C 51 % 78 % 100 % 1027,8 hPa 0,0 l/m 5,6 km/h (1 Bft) 2 min 11,1 km/h (2 Bft)
16.03.2010 14:30 15,1 C 8,7 C 2,9 UV-I 5,5 C 51 % 77 % 100 % 1027,8 hPa 0,0 l/m 6,0 km/h (2 Bft) 2 min 4,3 km/h (1 Bft)
16.03.2010 14:34 15,1 C 8,8 C 2,9 UV-I 4,2 C 51 % 77 % 100 % 1027,8 hPa 0,0 l/m 6,4 km/h (2 Bft) 2 min 5,3 km/h (1 Bft)
16.03.2010 14:36 15,2 C 8,8 C 2,9 UV-I 3,9 C 51 % 77 % 100 % 1027,8 hPa 0,0 l/m 7,2 km/h (2 Bft) 2 min 10,6 km/h (2 Bft)
16.03.2010 14:38 15,2 C 8,7 C 2,9 UV-I 3,3 C 51 % 76 % 94 % 1027,8 hPa 0,0 l/m 8,0 km/h (2 Bft) 2 min 3,6 km/h (1 Bft)
16.03.2010 14:40 15,2 C 8,7 C 1,7 UV-I 2,9 C 51 % 77 % 83 % 1027,8 hPa 0,0 l/m 7,6 km/h (2 Bft) 2 min 10,6 km/h (2 Bft)
16.03.2010 14:42 15,2 C 8,7 C 1,7 UV-I 2,6 C 50 % 77 % 74 % 1027,8 hPa 0,0 l/m 6,8 km/h (2 Bft) 0 min 5,5 km/h (1 Bft)
16.03.2010 14:44 15,2 C 8,7 C 1,5 UV-I 2,3 C 50 % 76 % 66 % 1027,8 hPa 0,0 l/m 7,6 km/h (2 Bft) 0 min 7,9 km/h (2 Bft)
16.03.2010 14:46 15,2 C 8,6 C 1,5 UV-I 2,1 C 50 % 76 % 60 % 1027,8 hPa 0,0 l/m 7,6 km/h (2 Bft) 0 min 10,3 km/h (2 Bft)
16.03.2010 14:48 15,2 C 8,7 C 1,5 UV-I 1,6 C 50 % 76 % 46 % 1027,8 hPa 0,0 l/m 8,0 km/h (2 Bft) 0 min 11,5 km/h (2 Bft)
16.03.2010 14:50 15,2 C 8,6 C 1,6 UV-I 1,4 C 50 % 76 % 40 % 1027,8 hPa 0,0 l/m 8,8 km/h (2 Bft) 0 min 10,8 km/h (2 Bft)
16.03.2010 14:52 15,2 C 8,6 C 1,6 UV-I 1,4 C 50 % 76 % 40 % 1027,1 hPa 0,0 l/m 8,4 km/h (2 Bft) 0 min 0,0 km/h (0 Bft)
16.03.2010 14:54 15,1 C 8,7 C 3,1 UV-I 1,5 C 50 % 77 % 43 % 1027,1 hPa 0,0 l/m 7,2 km/h (2 Bft) 0 min 0,0 km/h (0 Bft)
16.03.2010 14:56 15,1 C 8,8 C 3,1 UV-I 1,9 C 50 % 77 % 54 % 1027,1 hPa 0,0 l/m 6,4 km/h (2 Bft) 0 min 8,2 km/h (2 Bft)
16.03.2010 14:58 15,2 C 8,9 C 3,1 UV-I 1,8 C 50 % 76 % 51 % 1027,1 hPa 0,0 l/m 6,4 km/h (2 Bft) 0 min 11,8 km/h (2 Bft)
16.03.2010 15:00 15,1 C 8,8 C 1,7 UV-I 1,9 C 50 % 76 % 54 % 1027,1 hPa 0,0 l/m 4,4 km/h (1 Bft) 0 min 0,0 km/h (0 Bft)
16.03.2010 15:02 15,2 C 8,9 C 1,7 UV-I 1,7 C 50 % 76 % 49 % 1027,1 hPa 0,0 l/m 3,6 km/h (1 Bft) 0 min 5,1 km/h (1 Bft)
16.03.2010 15:04 15,2 C 8,9 C 1,5 UV-I 1,6 C 50 % 76 % 46 % 1027,1 hPa 0,0 l/m 4,8 km/h (1 Bft) 0 min 4,1 km/h (1 Bft)
16.03.2010 15:08 15,1 C 8,8 C 1,5 UV-I 1,6 C 50 % 75 % 46 % 1027,1 hPa 0,0 l/m 5,6 km/h (1 Bft) 0 min 5,1 km/h (1 Bft)
16.03.2010 15:10 15,1 C 8,9 C 4,4 UV-I 2,2 C 50 % 75 % 63 % 1027,1 hPa 0,0 l/m 6,0 km/h (2 Bft) 0 min 5,5 km/h (1 Bft)
16.03.2010 15:12 15,3 C 9,0 C 4,4 UV-I 2,7 C 50 % 75 % 77 % 1027,2 hPa 0,0 l/m 6,4 km/h (2 Bft) 0 min 2,6 km/h (1 Bft)
16.03.2010 15:14 15,2 C 8,9 C 3,5 UV-I 3,1 C 50 % 75 % 89 % 1027,2 hPa 0,0 l/m 6,4 km/h (2 Bft) 2 min 7,2 km/h (2 Bft)
16.03.2010 15:16 15,2 C 9,0 C 3,5 UV-I 2,9 C 50 % 74 % 83 % 1027,2 hPa 0,0 l/m 7,2 km/h (2 Bft) 2 min 9,4 km/h (2 Bft)
16.03.2010 15:18 15,4 C 9,0 C 3,5 UV-I 2,4 C 50 % 74 % 69 % 1027,2 hPa 0,0 l/m 7,2 km/h (2 Bft) 0 min 4,1 km/h (1 Bft)
16.03.2010 15:20 15,4 C 9,0 C 1,2 UV-I 2,1 C 50 % 75 % 60 % 1027,2 hPa 0,0 l/m 8,0 km/h (2 Bft) 0 min 6,5 km/h (2 Bft)
16.03.2010 15:22 15,4 C 9,1 C 1,2 UV-I 1,8 C 50 % 75 % 51 % 1027,2 hPa 0,0 l/m 7,2 km/h (2 Bft) 0 min 7,5 km/h (2 Bft)
16.03.2010 15:26 15,4 C 9,0 C 1,5 UV-I 1,7 C 50 % 75 % 49 % 1027,2 hPa 0,0 l/m 8,0 km/h (2 Bft) 0 min 9,1 km/h (2 Bft)
16.03.2010 15:28 15,2 C 9,1 C 1,5 UV-I 1,3 C 50 % 74 % 37 % 1027,2 hPa 0,0 l/m 7,2 km/h (2 Bft) 0 min 12,8 km/h (3 Bft)
16.03.2010 15:30 15,2 C 9,0 C 1,5 UV-I 1,5 C 50 % 74 % 43 % 1027,2 hPa 0,0 l/m 8,0 km/h (2 Bft) 0 min 11,3 km/h (2 Bft)
16.03.2010 15:32 15,4 C 9,1 C 1,5 UV-I 1,3 C 50 % 74 % 37 % 1027,3 hPa 0,0 l/m 8,0 km/h (2 Bft) 0 min 5,3 km/h (1 Bft)
16.03.2010 15:34 15,2 C 8,9 C 0,9 UV-I 1,4 C 49 % 74 % 40 % 1027,3 hPa 0,0 l/m 8,0 km/h (2 Bft) 0 min 5,1 km/h (1 Bft)
16.03.2010 15:36 15,2 C 8,9 C 0,9 UV-I 1,3 C 49 % 74 % 37 % 1027,3 hPa 0,0 l/m 8,4 km/h (2 Bft) 0 min 9,6 km/h (2 Bft)
16.03.2010 15:38 15,2 C 8,9 C 0,9 UV-I 1,2 C 49 % 75 % 34 % 1027,3 hPa 0,0 l/m 8,0 km/h (2 Bft) 0 min 0,0 km/h (0 Bft)
16.03.2010 15:40 15,2 C 9,1 C 1,0 UV-I 0,9 C 49 % 75 % 26 % 1027,3 hPa 0,0 l/m 6,0 km/h (2 Bft) 0 min 7,9 km/h (2 Bft)
16.03.2010 15:42 15,3 C 8,9 C 1,0 UV-I 1,1 C 49 % 74 % 31 % 1027,3 hPa 0,0 l/m 6,8 km/h (2 Bft) 0 min 9,6 km/h (2 Bft)
16.03.2010 15:44 15,1 C 9,0 C 0,6 UV-I 0,8 C 49 % 74 % 23 % 1027,3 hPa 0,0 l/m 7,2 km/h (2 Bft) 0 min 7,7 km/h (2 Bft)
16.03.2010 15:46 15,1 C 8,9 C 0,6 UV-I 0,8 C 49 % 74 % 23 % 1027,3 hPa 0,0 l/m 6,8 km/h (2 Bft) 0 min 5,5 km/h (1 Bft)
16.03.2010 15:48 15,1 C 8,9 C 0,6 UV-I 0,6 C 49 % 74 % 17 % 1027,3 hPa 0,0 l/m 6,8 km/h (2 Bft) 0 min 3,8 km/h (1 Bft)
16.03.2010 15:50 15,2 C 8,9 C 0,7 UV-I 0,5 C 49 % 74 % 14 % 1027,3 hPa 0,0 l/m 7,6 km/h (2 Bft) 0 min 4,6 km/h (1 Bft)
16.03.2010 15:52 15,2 C 8,9 C 0,7 UV-I 0,4 C 49 % 75 % 11 % 1027,0 hPa 0,0 l/m 6,4 km/h (2 Bft) 0 min 3,6 km/h (1 Bft)
16.03.2010 15:54 15,1 C 8,9 C 0,7 UV-I 0,3 C 49 % 75 % 9 % 1027,0 hPa 0,0 l/m 4,8 km/h (1 Bft) 0 min 4,1 km/h (1 Bft)
16.03.2010 15:56 15,1 C 9,1 C 0,7 UV-I 0,2 C 49 % 74 % 6 % 1027,0 hPa 0,0 l/m 4,8 km/h (1 Bft) 0 min 5,8 km/h (2 Bft)
16.03.2010 15:58 15,1 C 8,9 C 0,7 UV-I 0,4 C 49 % 74 % 11 % 1027,0 hPa 0,0 l/m 4,8 km/h (1 Bft) 0 min 5,3 km/h (1 Bft)
16.03.2010 16:00 14,9 C 8,9 C 0,6 UV-I 0,4 C 49 % 74 % 11 % 1027,0 hPa 0,0 l/m 4,4 km/h (1 Bft) 0 min 4,1 km/h (1 Bft)
16.03.2010 16:02 14,9 C 8,9 C 0,6 UV-I 0,3 C 49 % 74 % 9 % 1027,0 hPa 0,0 l/m 5,2 km/h (1 Bft) 0 min 2,6 km/h (1 Bft)
16.03.2010 16:04 15,0 C 8,9 C 0,5 UV-I 0,2 C 49 % 74 % 6 % 1027,0 hPa 0,0 l/m 6,0 km/h (2 Bft) 0 min 0,0 km/h (0 Bft)
16.03.2010 16:06 15,0 C 8,8 C 0,5 UV-I 0,2 C 49 % 75 % 6 % 1027,0 hPa 0,0 l/m 5,6 km/h (1 Bft) 0 min 6,7 km/h (2 Bft)
16.03.2010 16:08 15,0 C 8,8 C 0,5 UV-I 0,2 C 49 % 74 % 6 % 1027,0 hPa 0,0 l/m 6,0 km/h (2 Bft) 0 min 5,5 km/h (1 Bft)
16.03.2010 16:10 14,8 C 8,9 C 0,4 UV-I 0,0 C 49 % 74 % 0 % 1027,0 hPa 0,0 l/m 6,4 km/h (2 Bft) 0 min 5,8 km/h (2 Bft)
16.03.2010 16:12 14,9 C 8,8 C 0,4 UV-I 0,0 C 49 % 74 % 0 % 1026,7 hPa 0,0 l/m 5,6 km/h (1 Bft) 0 min 0,0 km/h (0 Bft)
16.03.2010 16:14 14,8 C 8,7 C 0,5 UV-I 0,0 C 49 % 75 % 0 % 1026,7 hPa 0,0 l/m 5,2 km/h (1 Bft) 0 min 2,6 km/h (1 Bft)
16.03.2010 16:16 14,8 C 8,8 C 0,5 UV-I 0,0 C 50 % 75 % 0 % 1026,7 hPa 0,0 l/m 6,0 km/h (2 Bft) 0 min 3,8 km/h (1 Bft)
16.03.2010 16:18 14,8 C 8,7 C 0,5 UV-I 0,0 C 50 % 75 % 0 % 1026,7 hPa 0,0 l/m 5,2 km/h (1 Bft) 0 min 2,6 km/h (1 Bft)
16.03.2010 16:20 14,8 C 8,7 C 0,3 UV-I 0,0 C 50 % 75 % 0 % 1026,7 hPa 0,0 l/m 4,4 km/h (1 Bft) 0 min 0,0 km/h (0 Bft)
16.03.2010 16:22 14,8 C 8,7 C 0,3 UV-I 0,0 C 50 % 75 % 0 % 1026,7 hPa 0,0 l/m 4,4 km/h (1 Bft) 0 min 7,2 km/h (2 Bft)
16.03.2010 16:24 14,6 C 8,7 C 0,2 UV-I 0,0 C 50 % 75 % 0 % 1026,7 hPa 0,0 l/m 3,2 km/h (1 Bft) 0 min 0,0 km/h (0 Bft)
16.03.2010 16:26 14,6 C 8,7 C 0,2 UV-I 0,0 C 50 % 75 % 0 % 1026,7 hPa 0,0 l/m 2,4 km/h (1 Bft) 0 min 0,0 km/h (0 Bft)
16.03.2010 16:28 14,7 C 8,7 C 0,2 UV-I 0,0 C 50 % 75 % 0 % 1026,7 hPa 0,0 l/m 1,6 km/h (1 Bft) 0 min 0,0 km/h (0 Bft)
16.03.2010 16:30 14,7 C 8,7 C 0,0 UV-I 0,0 C 50 % 75 % 0 % 1026,7 hPa 0,0 l/m 2,0 km/h (1 Bft) 0 min 7,0 km/h (2 Bft)
16.03.2010 16:34 14,6 C 8,7 C 0,0 UV-I 0,0 C 50 % 75 % 0 % 1026,6 hPa 0,0 l/m 2,4 km/h (1 Bft) 0 min 3,1 km/h (1 Bft)
16.03.2010 16:36 14,6 C 8,6 C 0,0 UV-I 0,0 C 50 % 75 % 0 % 1026,6 hPa 0,0 l/m 2,4 km/h (1 Bft) 0 min 3,8 km/h (1 Bft)
16.03.2010 16:38 14,6 C 8,5 C 0,0 UV-I 0,0 C 50 % 75 % 0 % 1026,6 hPa 0,0 l/m 2,8 km/h (1 Bft) 0 min 2,9 km/h (1 Bft)
16.03.2010 16:40 14,6 C 8,5 C 0,0 UV-I 0,0 C 50 % 75 % 0 % 1026,6 hPa 0,0 l/m 2,4 km/h (1 Bft) 0 min 3,4 km/h (1 Bft)
16.03.2010 16:42 14,4 C 8,4 C 0,0 UV-I 0,0 C 50 % 75 % 0 % 1026,6 hPa 0,0 l/m 2,8 km/h (1 Bft) 0 min 6,0 km/h (2 Bft)
16.03.2010 16:44 14,4 C 8,4 C 0,0 UV-I 0,0 C 50 % 75 % 0 % 1026,6 hPa 0,0 l/m 2,4 km/h (1 Bft) 0 min 3,4 km/h (1 Bft)
16.03.2010 16:48 14,5 C 8,4 C 0,0 UV-I 0,0 C 50 % 75 % 0 % 1026,6 hPa 0,0 l/m 2,8 km/h (1 Bft) 0 min 4,1 km/h (1 Bft)
16.03.2010 16:50 14,3 C 8,4 C 0,1 UV-I 0,0 C 50 % 75 % 0 % 1026,6 hPa 0,0 l/m 3,2 km/h (1 Bft) 0 min 3,8 km/h (1 Bft)
16.03.2010 16:52 14,3 C 8,4 C 0,1 UV-I 0,0 C 50 % 75 % 0 % 1026,2 hPa 0,0 l/m 2,4 km/h (1 Bft) 0 min 0,0 km/h (0 Bft)
16.03.2010 16:54 14,3 C 8,3 C 0,0 UV-I 0,0 C 51 % 75 % 0 % 1026,2 hPa 0,0 l/m 2,0 km/h (1 Bft) 0 min 4,3 km/h (1 Bft)
16.03.2010 16:56 14,3 C 8,3 C 0,0 UV-I 0,0 C 51 % 75 % 0 % 1026,2 hPa 0,0 l/m 2,0 km/h (1 Bft) 0 min 0,0 km/h (0 Bft)
16.03.2010 17:00 14,4 C 8,3 C 0,0 UV-I 0,0 C 51 % 76 % 0 % 1026,2 hPa 0,0 l/m 2,4 km/h (1 Bft) 0 min 5,1 km/h (1 Bft)
16.03.2010 17:04 14,4 C 8,3 C 0,0 UV-I 0,0 C 51 % 76 % 0 % 1026,2 hPa 0,0 l/m 2,4 km/h (1 Bft) 0 min 4,1 km/h (1 Bft)
16.03.2010 17:06 14,2 C 8,2 C 0,0 UV-I 0,0 C 51 % 76 % 0 % 1026,2 hPa 0,0 l/m 3,2 km/h (1 Bft) 0 min 7,0 km/h (2 Bft)
16.03.2010 17:08 14,3 C 8,1 C 0,0 UV-I 0,0 C 51 % 76 % 0 % 1026,2 hPa 0,0 l/m 3,6 km/h (1 Bft) 0 min 0,0 km/h (0 Bft)
16.03.2010 17:10 14,3 C 8,1 C 0,0 UV-I 0,0 C 51 % 76 % 0 % 1026,2 hPa 0,0 l/m 3,2 km/h (1 Bft) 0 min 0,0 km/h (0 Bft)
16.03.2010 17:12 14,3 C 8,1 C 0,0 UV-I 0,0 C 51 % 76 % 0 % 1026,9 hPa 0,0 l/m 4,4 km/h (1 Bft) 0 min 7,5 km/h (2 Bft)
16.03.2010 17:14 14,3 C 8,1 C 0,0 UV-I 0,0 C 51 % 76 % 0 % 1026,9 hPa 0,0 l/m 4,0 km/h (1 Bft) 0 min 0,0 km/h (0 Bft)
16.03.2010 17:16 14,3 C 8,0 C 0,0 UV-I 0,0 C 51 % 76 % 0 % 1026,9 hPa 0,0 l/m 4,4 km/h (1 Bft) 0 min 5,1 km/h (1 Bft)
16.03.2010 17:18 14,1 C 8,0 C 0,0 UV-I 0,0 C 51 % 76 % 0 % 1026,9 hPa 0,0 l/m 4,4 km/h (1 Bft) 0 min 3,8 km/h (1 Bft)
16.03.2010 17:20 14,2 C 8,0 C 0,0 UV-I 0,0 C 51 % 76 % 0 % 1026,9 hPa 0,0 l/m 4,4 km/h (1 Bft) 0 min 0,0 km/h (0 Bft)
16.03.2010 17:22 14,2 C 8,0 C 0,0 UV-I 0,0 C 51 % 76 % 0 % 1026,9 hPa 0,0 l/m 4,0 km/h (1 Bft) 0 min 2,9 km/h (1 Bft)
16.03.2010 17:24 14,2 C 8,0 C 0,0 UV-I 0,0 C 51 % 76 % 0 % 1026,9 hPa 0,0 l/m 3,2 km/h (1 Bft) 0 min 0,0 km/h (0 Bft)
16.03.2010 17:26 14,2 C 7,9 C 0,0 UV-I 0,0 C 51 % 76 % 0 % 1026,9 hPa 0,0 l/m 3,2 km/h (1 Bft) 0 min 0,0 km/h (0 Bft)
16.03.2010 17:28 14,2 C 8,0 C 0,0 UV-I 0,0 C 51 % 76 % 0 % 1026,9 hPa 0,0 l/m 1,2 km/h (1 Bft) 0 min 0,0 km/h (0 Bft)
16.03.2010 17:32 14,1 C 7,9 C 0,0 UV-I 0,0 C 51 % 76 % 0 % 1026,6 hPa 0,0 l/m 0,8 km/h (0 Bft) 0 min 0,0 km/h (0 Bft)
16.03.2010 17:36 14,1 C 7,9 C 0,0 UV-I 0,0 C 51 % 76 % 0 % 1026,6 hPa 0,0 l/m 0,4 km/h (0 Bft) 0 min 5,5 km/h (1 Bft)
16.03.2010 17:38 14,1 C 7,8 C 0,0 UV-I 0,0 C 51 % 76 % 0 % 1026,6 hPa 0,0 l/m 1,6 km/h (1 Bft) 0 min 2,9 km/h (1 Bft)
16.03.2010 17:40 14,1 C 7,9 C 0,0 UV-I 0,0 C 51 % 76 % 0 % 1026,6 hPa 0,0 l/m 1,6 km/h (1 Bft) 0 min 0,0 km/h (0 Bft)
16.03.2010 17:42 13,9 C 7,9 C 0,0 UV-I 0,0 C 51 % 77 % 0 % 1026,6 hPa 0,0 l/m 1,6 km/h (1 Bft) 0 min 0,0 km/h (0 Bft)
16.03.2010 17:44 14,1 C 7,9 C 0,0 UV-I 0,0 C 51 % 77 % 0 % 1026,6 hPa 0,0 l/m 2,0 km/h (1 Bft) 0 min 4,6 km/h (1 Bft)
16.03.2010 17:48 13,9 C 7,9 C 0,0 UV-I 0,0 C 51 % 77 % 0 % 1026,6 hPa 0,0 l/m 0,8 km/h (0 Bft) 0 min 0,0 km/h (0 Bft)
16.03.2010 17:50 14,0 C 7,7 C 0,0 UV-I 0,0 C 51 % 77 % 0 % 1026,6 hPa 0,0 l/m 0,8 km/h (0 Bft) 0 min 5,8 km/h (2 Bft)
16.03.2010 17:52 14,0 C 7,7 C 0,0 UV-I 0,0 C 51 % 77 % 0 % 1026,5 hPa 0,0 l/m 1,2 km/h (1 Bft) 0 min 3,8 km/h (1 Bft)
16.03.2010 17:54 14,0 C 7,7 C 0,0 UV-I 0,0 C 51 % 77 % 0 % 1026,5 hPa 0,0 l/m 1,6 km/h (1 Bft) 0 min 0,0 km/h (0 Bft)
16.03.2010 17:56 14,0 C 7,7 C 0,0 UV-I 0,0 C 51 % 77 % 0 % 1026,5 hPa 0,0 l/m 1,2 km/h (1 Bft) 0 min 0,0 km/h (0 Bft)
16.03.2010 17:58 14,0 C 7,7 C 0,0 UV-I 0,0 C 51 % 77 % 0 % 1026,5 hPa 0,0 l/m 1,2 km/h (1 Bft) 0 min 0,0 km/h (0 Bft)
16.03.2010 18:02 14,0 C 7,7 C 0,0 UV-I 0,0 C 51 % 77 % 0 % 1026,5 hPa 0,0 l/m 0,8 km/h (0 Bft) 0 min 3,1 km/h (1 Bft)
16.03.2010 18:04 14,0 C 7,6 C 0,0 UV-I 0,0 C 51 % 77 % 0 % 1026,5 hPa 0,0 l/m 0,4 km/h (0 Bft) 0 min 0,0 km/h (0 Bft)
16.03.2010 18:06 14,0 C 7,6 C 0,0 UV-I 0,0 C 51 % 77 % 0 % 1026,5 hPa 0,0 l/m 0,8 km/h (0 Bft) 0 min 0,0 km/h (0 Bft)
16.03.2010 18:08 13,8 C 7,6 C 0,0 UV-I 0,0 C 51 % 77 % 0 % 1026,5 hPa 0,0 l/m 0,8 km/h (0 Bft) 0 min 0,0 km/h (0 Bft)
16.03.2010 18:12 13,8 C 7,6 C 0,0 UV-I 0,0 C 51 % 78 % 0 % 1026,9 hPa 0,0 l/m 0,4 km/h (0 Bft) 0 min 0,0 km/h (0 Bft)
16.03.2010 18:16 13,9 C 7,6 C 0,0 UV-I 0,0 C 52 % 78 % 0 % 1026,9 hPa 0,0 l/m 0,0 km/h (0 Bft) 0 min 0,0 km/h (0 Bft)
16.03.2010 18:18 13,9 C 7,6 C 0,0 UV-I 0,0 C 52 % 78 % 0 % 1026,9 hPa 0,0 l/m 0,0 km/h (0 Bft) 0 min 0,0 km/h (0 Bft)
16.03.2010 18:22 13,8 C 7,5 C 0,0 UV-I 0,0 C 52 % 78 % 0 % 1026,9 hPa 0,0 l/m 0,0 km/h (0 Bft) 0 min 0,0 km/h (0 Bft)
16.03.2010 18:26 13,9 C 7,5 C 0,0 UV-I 0,0 C 52 % 78 % 0 % 1026,9 hPa 0,0 l/m 0,0 km/h (0 Bft) 0 min 0,0 km/h (0 Bft)
16.03.2010 18:28 13,8 C 7,5 C 0,0 UV-I 0,0 C 52 % 78 % 0 % 1026,9 hPa 0,0 l/m 0,0 km/h (0 Bft) 0 min 0,0 km/h (0 Bft)
16.03.2010 18:30 13,8 C 7,5 C 0,0 UV-I 0,0 C 52 % 78 % 0 % 1026,9 hPa 0,0 l/m 0,0 km/h (0 Bft) 0 min 2,4 km/h (1 Bft)
16.03.2010 18:32 13,8 C 7,4 C 0,0 UV-I 0,0 C 52 % 78 % 0 % 1026,8 hPa 0,0 l/m 0,0 km/h (0 Bft) 0 min 0,0 km/h (0 Bft)
16.03.2010 18:36 13,8 C 7,5 C 0,0 UV-I 0,0 C 52 % 78 % 0 % 1026,8 hPa 0,0 l/m 0,0 km/h (0 Bft) 0 min 0,0 km/h (0 Bft)
16.03.2010 18:38 13,8 C 7,5 C 0,0 UV-I 0,0 C 52 % 78 % 0 % 1026,8 hPa 0,0 l/m 0,0 km/h (0 Bft) 0 min 0,0 km/h (0 Bft)
16.03.2010 18:40 13,8 C 7,3 C 0,0 UV-I 0,0 C 52 % 78 % 0 % 1026,8 hPa 0,0 l/m 0,0 km/h (0 Bft) 0 min 0,0 km/h (0 Bft)
16.03.2010 18:42 13,8 C 7,3 C 0,0 UV-I 0,0 C 52 % 78 % 0 % 1026,8 hPa 0,0 l/m 0,0 km/h (0 Bft) 0 min 0,0 km/h (0 Bft)
16.03.2010 18:46 13,8 C 7,3 C 0,0 UV-I 0,0 C 52 % 79 % 0 % 1026,8 hPa 0,0 l/m 0,0 km/h (0 Bft) 0 min 2,4 km/h (1 Bft)
16.03.2010 18:48 13,8 C 7,3 C 0,0 UV-I 0,0 C 52 % 79 % 0 % 1026,8 hPa 0,0 l/m 0,0 km/h (0 Bft) 0 min 0,0 km/h (0 Bft)
16.03.2010 18:54 13,8 C 7,3 C 0,0 UV-I 0,0 C 52 % 79 % 0 % 1026,8 hPa 0,0 l/m 0,0 km/h (0 Bft) 0 min 0,0 km/h (0 Bft)
16.03.2010 18:56 13,8 C 7,3 C 0,0 UV-I 0,0 C 52 % 79 % 0 % 1026,8 hPa 0,0 l/m 0,0 km/h (0 Bft) 0 min 0,0 km/h (0 Bft)
16.03.2010 18:58 13,6 C 7,3 C 0,0 UV-I 0,0 C 52 % 79 % 0 % 1026,8 hPa 0,0 l/m 0,0 km/h (0 Bft) 0 min 0,0 km/h (0 Bft)
16.03.2010 19:00 13,6 C 7,3 C 0,0 UV-I 0,0 C 52 % 79 % 0 % 1026,8 hPa 0,0 l/m 0,0 km/h (0 Bft) 0 min 0,0 km/h (0 Bft)
16.03.2010 19:02 13,6 C 7,2 C 0,0 UV-I 0,0 C 52 % 79 % 0 % 1026,8 hPa 0,0 l/m 0,0 km/h (0 Bft) 0 min 0,0 km/h (0 Bft)
16.03.2010 19:06 13,6 C 7,2 C 0,0 UV-I 0,0 C 52 % 80 % 0 % 1026,8 hPa 0,0 l/m 0,0 km/h (0 Bft) 0 min 0,0 km/h (0 Bft)
16.03.2010 19:10 13,7 C 7,2 C 0,0 UV-I 0,0 C 52 % 80 % 0 % 1026,8 hPa 0,0 l/m 0,0 km/h (0 Bft) 0 min 0,0 km/h (0 Bft)
16.03.2010 19:12 13,6 C 7,2 C 0,0 UV-I 0,0 C 52 % 80 % 0 % 1026,6 hPa 0,0 l/m 0,0 km/h (0 Bft) 0 min 0,0 km/h (0 Bft)
16.03.2010 19:14 13,7 C 7,1 C 0,0 UV-I 0,0 C 52 % 80 % 0 % 1026,6 hPa 0,0 l/m 0,0 km/h (0 Bft) 0 min 0,0 km/h (0 Bft)
16.03.2010 19:16 13,6 C 7,0 C 0,0 UV-I 0,0 C 52 % 80 % 0 % 1026,6 hPa 0,0 l/m 0,0 km/h (0 Bft) 0 min 0,0 km/h (0 Bft)
16.03.2010 19:18 13,7 C 7,0 C 0,0 UV-I 0,0 C 52 % 80 % 0 % 1026,6 hPa 0,0 l/m 0,0 km/h (0 Bft) 0 min 0,0 km/h (0 Bft)
16.03.2010 19:20 13,7 C 6,9 C 0,0 UV-I 0,0 C 52 % 80 % 0 % 1026,6 hPa 0,0 l/m 0,0 km/h (0 Bft) 0 min 0,0 km/h (0 Bft)
16.03.2010 19:24 13,7 C 6,8 C 0,0 UV-I 0,0 C 52 % 80 % 0 % 1026,6 hPa 0,0 l/m 0,0 km/h (0 Bft) 0 min 0,0 km/h (0 Bft)
16.03.2010 19:26 13,6 C 6,8 C 0,0 UV-I 0,0 C 52 % 81 % 0 % 1026,6 hPa 0,0 l/m 0,0 km/h (0 Bft) 0 min 0,0 km/h (0 Bft)
16.03.2010 19:28 13,6 C 6,8 C 0,0 UV-I 0,0 C 52 % 81 % 0 % 1026,6 hPa 0,0 l/m 0,0 km/h (0 Bft) 0 min 0,0 km/h (0 Bft)
16.03.2010 19:30 13,6 C 6,7 C 0,0 UV-I 0,0 C 52 % 81 % 0 % 1026,6 hPa 0,0 l/m 0,0 km/h (0 Bft) 0 min 0,0 km/h (0 Bft)
16.03.2010 19:32 13,6 C 6,7 C 0,0 UV-I 0,0 C 52 % 81 % 0 % 1026,8 hPa 0,0 l/m 0,0 km/h (0 Bft) 0 min 0,0 km/h (0 Bft)
16.03.2010 19:34 13,6 C 6,7 C 0,0 UV-I 0,0 C 52 % 81 % 0 % 1026,8 hPa 0,0 l/m 0,0 km/h (0 Bft) 0 min 0,0 km/h (0 Bft)
16.03.2010 19:36 13,6 C 6,6 C 0,0 UV-I 0,0 C 52 % 81 % 0 % 1026,8 hPa 0,0 l/m 0,0 km/h (0 Bft) 0 min 0,0 km/h (0 Bft)
16.03.2010 19:38 13,6 C 6,5 C 0,0 UV-I 0,0 C 52 % 81 % 0 % 1026,8 hPa 0,0 l/m 0,0 km/h (0 Bft) 0 min 0,0 km/h (0 Bft)
16.03.2010 19:42 13,6 C 6,4 C 0,0 UV-I 0,0 C 52 % 81 % 0 % 1026,8 hPa 0,0 l/m 0,0 km/h (0 Bft) 0 min 0,0 km/h (0 Bft)
16.03.2010 19:44 13,6 C 6,4 C 0,0 UV-I 0,0 C 52 % 81 % 0 % 1026,8 hPa 0,0 l/m 0,0 km/h (0 Bft) 0 min 0,0 km/h (0 Bft)
16.03.2010 19:46 13,6 C 6,3 C 0,0 UV-I 0,0 C 52 % 81 % 0 % 1026,8 hPa 0,0 l/m 0,0 km/h (0 Bft) 0 min 0,0 km/h (0 Bft)
16.03.2010 19:48 13,6 C 6,2 C 0,0 UV-I 0,0 C 52 % 82 % 0 % 1026,8 hPa 0,0 l/m 0,0 km/h (0 Bft) 0 min 0,0 km/h (0 Bft)
16.03.2010 19:50 13,6 C 6,3 C 0,0 UV-I 0,0 C 52 % 82 % 0 % 1026,8 hPa 0,0 l/m 0,0 km/h (0 Bft) 0 min 0,0 km/h (0 Bft)
16.03.2010 19:52 13,6 C 6,1 C 0,0 UV-I 0,0 C 52 % 82 % 0 % 1026,6 hPa 0,0 l/m 0,0 km/h (0 Bft) 0 min 0,0 km/h (0 Bft)
16.03.2010 19:54 13,6 C 6,0 C 0,0 UV-I 0,0 C 52 % 82 % 0 % 1026,6 hPa 0,0 l/m 0,0 km/h (0 Bft) 0 min 0,0 km/h (0 Bft)
16.03.2010 19:56 13,6 C 6,0 C 0,0 UV-I 0,0 C 53 % 82 % 0 % 1026,6 hPa 0,0 l/m 0,0 km/h (0 Bft) 0 min 0,0 km/h (0 Bft)
16.03.2010 19:58 13,6 C 6,0 C 0,0 UV-I 0,0 C 52 % 82 % 0 % 1026,6 hPa 0,0 l/m 0,0 km/h (0 Bft) 0 min 0,0 km/h (0 Bft)
16.03.2010 20:02 13,6 C 5,9 C 0,0 UV-I 0,0 C 52 % 82 % 0 % 1026,6 hPa 0,0 l/m 0,0 km/h (0 Bft) 0 min 0,0 km/h (0 Bft)
16.03.2010 20:04 13,6 C 5,9 C 0,0 UV-I 0,0 C 53 % 82 % 0 % 1026,6 hPa 0,0 l/m 0,0 km/h (0 Bft) 0 min 0,0 km/h (0 Bft)
16.03.2010 20:06 13,6 C 5,7 C 0,0 UV-I 0,0 C 52 % 83 % 0 % 1026,6 hPa 0,0 l/m 0,0 km/h (0 Bft) 0 min 0,0 km/h (0 Bft)
16.03.2010 20:08 13,4 C 5,7 C 0,0 UV-I 0,0 C 53 % 83 % 0 % 1026,6 hPa 0,0 l/m 0,0 km/h (0 Bft) 0 min 0,0 km/h (0 Bft)
16.03.2010 20:10 13,6 C 5,6 C 0,0 UV-I 0,0 C 53 % 83 % 0 % 1026,6 hPa 0,0 l/m 0,0 km/h (0 Bft) 0 min 0,0 km/h (0 Bft)
16.03.2010 20:12 13,5 C 5,5 C 0,0 UV-I 0,0 C 53 % 83 % 0 % 1026,5 hPa 0,0 l/m 0,0 km/h (0 Bft) 0 min 0,0 km/h (0 Bft)
16.03.2010 20:14 13,4 C 5,5 C 0,0 UV-I 0,0 C 52 % 83 % 0 % 1026,5 hPa 0,0 l/m 0,0 km/h (0 Bft) 0 min 0,0 km/h (0 Bft)
16.03.2010 20:16 13,4 C 5,5 C 0,0 UV-I 0,0 C 53 % 83 % 0 % 1026,5 hPa 0,0 l/m 0,0 km/h (0 Bft) 0 min 0,0 km/h (0 Bft)
16.03.2010 20:18 13,5 C 5,5 C 0,0 UV-I 0,0 C 53 % 84 % 0 % 1026,5 hPa 0,0 l/m 0,0 km/h (0 Bft) 0 min 0,0 km/h (0 Bft)
16.03.2010 20:20 13,5 C 5,3 C 0,0 UV-I 0,0 C 53 % 84 % 0 % 1026,5 hPa 0,0 l/m 0,0 km/h (0 Bft) 0 min 0,0 km/h (0 Bft)
16.03.2010 20:22 13,5 C 5,3 C 0,0 UV-I 0,0 C 53 % 84 % 0 % 1026,5 hPa 0,0 l/m 0,0 km/h (0 Bft) 0 min 0,0 km/h (0 Bft)
16.03.2010 20:24 13,5 C 5,2 C 0,0 UV-I 0,0 C 53 % 84 % 0 % 1026,5 hPa 0,0 l/m 0,0 km/h (0 Bft) 0 min 0,0 km/h (0 Bft)
16.03.2010 20:30 13,5 C 5,1 C 0,0 UV-I 0,0 C 53 % 84 % 0 % 1026,5 hPa 0,0 l/m 0,0 km/h (0 Bft) 0 min 0,0 km/h (0 Bft)
16.03.2010 20:32 13,5 C 5,0 C 0,0 UV-I 0,0 C 53 % 84 % 0 % 1026,4 hPa 0,0 l/m 0,0 km/h (0 Bft) 0 min 0,0 km/h (0 Bft)
16.03.2010 20:34 13,5 C 5,1 C 0,0 UV-I 0,0 C 53 % 84 % 0 % 1026,4 hPa 0,0 l/m 0,0 km/h (0 Bft) 0 min 0,0 km/h (0 Bft)
16.03.2010 20:36 13,3 C 4,9 C 0,0 UV-I 0,0 C 53 % 85 % 0 % 1026,4 hPa 0,0 l/m 0,0 km/h (0 Bft) 0 min 0,0 km/h (0 Bft)
16.03.2010 20:38 13,5 C 4,9 C 0,0 UV-I 0,0 C 53 % 85 % 0 % 1026,4 hPa 0,0 l/m 0,0 km/h (0 Bft) 0 min 0,0 km/h (0 Bft)
16.03.2010 20:40 13,3 C 4,8 C 0,0 UV-I 0,0 C 53 % 85 % 0 % 1026,4 hPa 0,0 l/m 0,0 km/h (0 Bft) 0 min 0,0 km/h (0 Bft)
16.03.2010 20:42 13,3 C 4,8 C 0,0 UV-I 0,0 C 53 % 85 % 0 % 1026,4 hPa 0,0 l/m 0,0 km/h (0 Bft) 0 min 0,0 km/h (0 Bft)
16.03.2010 20:44 13,3 C 4,7 C 0,0 UV-I 0,0 C 53 % 85 % 0 % 1026,4 hPa 0,0 l/m 0,0 km/h (0 Bft) 0 min 0,0 km/h (0 Bft)
16.03.2010 20:46 13,4 C 4,7 C 0,0 UV-I 0,0 C 53 % 85 % 0 % 1026,4 hPa 0,0 l/m 0,0 km/h (0 Bft) 0 min 0,0 km/h (0 Bft)
16.03.2010 20:48 13,4 C 4,7 C 0,0 UV-I 0,0 C 53 % 85 % 0 % 1026,4 hPa 0,0 l/m 0,0 km/h (0 Bft) 0 min 0,0 km/h (0 Bft)
16.03.2010 20:50 13,4 C 4,7 C 0,0 UV-I 0,0 C 53 % 86 % 0 % 1026,4 hPa 0,0 l/m 0,0 km/h (0 Bft) 0 min 0,0 km/h (0 Bft)
16.03.2010 20:52 13,4 C 4,6 C 0,0 UV-I 0,0 C 53 % 86 % 0 % 1026,8 hPa 0,0 l/m 0,0 km/h (0 Bft) 0 min 0,0 km/h (0 Bft)
16.03.2010 20:54 13,4 C 4,5 C 0,0 UV-I 0,0 C 53 % 86 % 0 % 1026,8 hPa 0,0 l/m 0,0 km/h (0 Bft) 0 min 0,0 km/h (0 Bft)
16.03.2010 20:56 13,4 C 4,5 C 0,0 UV-I 0,0 C 53 % 86 % 0 % 1026,8 hPa 0,0 l/m 0,0 km/h (0 Bft) 0 min 0,0 km/h (0 Bft)
16.03.2010 20:58 13,4 C 4,4 C 0,0 UV-I 0,0 C 53 % 86 % 0 % 1026,8 hPa 0,0 l/m 0,0 km/h (0 Bft) 0 min 0,0 km/h (0 Bft)
16.03.2010 21:02 13,4 C 4,4 C 0,0 UV-I 0,0 C 53 % 86 % 0 % 1026,8 hPa 0,0 l/m 0,0 km/h (0 Bft) 0 min 0,0 km/h (0 Bft)
16.03.2010 21:04 13,4 C 4,4 C 0,0 UV-I 0,0 C 53 % 86 % 0 % 1026,8 hPa 0,0 l/m 0,0 km/h (0 Bft) 0 min 0,0 km/h (0 Bft)
16.03.2010 21:06 13,4 C 4,3 C 0,0 UV-I 0,0 C 53 % 86 % 0 % 1026,8 hPa 0,0 l/m 0,0 km/h (0 Bft) 0 min 0,0 km/h (0 Bft)
16.03.2010 21:08 13,4 C 4,3 C 0,0 UV-I 0,0 C 53 % 87 % 0 % 1026,8 hPa 0,0 l/m 0,0 km/h (0 Bft) 0 min 0,0 km/h (0 Bft)
16.03.2010 21:10 13,4 C 4,3 C 0,0 UV-I 0,0 C 53 % 87 % 0 % 1026,8 hPa 0,0 l/m 0,0 km/h (0 Bft) 0 min 0,0 km/h (0 Bft)
16.03.2010 21:14 13,4 C 4,3 C 0,0 UV-I 0,0 C 53 % 87 % 0 % 1026,2 hPa 0,0 l/m 0,4 km/h (0 Bft) 0 min 0,0 km/h (0 Bft)
16.03.2010 21:16 13,4 C 4,3 C 0,0 UV-I 0,0 C 53 % 87 % 0 % 1026,2 hPa 0,0 l/m 0,4 km/h (0 Bft) 0 min 0,0 km/h (0 Bft)
16.03.2010 21:18 13,4 C 4,3 C 0,0 UV-I 0,0 C 53 % 88 % 0 % 1026,2 hPa 0,0 l/m 0,4 km/h (0 Bft) 0 min 2,9 km/h (1 Bft)
16.03.2010 21:22 13,4 C 4,3 C 0,0 UV-I 0,0 C 53 % 88 % 0 % 1026,2 hPa 0,0 l/m 0,8 km/h (0 Bft) 0 min 3,1 km/h (1 Bft)
16.03.2010 21:24 13,2 C 4,3 C 0,0 UV-I 0,0 C 53 % 88 % 0 % 1026,2 hPa 0,0 l/m 0,8 km/h (0 Bft) 0 min 0,0 km/h (0 Bft)
16.03.2010 21:26 13,2 C 4,3 C 0,0 UV-I 0,0 C 53 % 88 % 0 % 1026,2 hPa 0,0 l/m 0,8 km/h (0 Bft) 0 min 0,0 km/h (0 Bft)
16.03.2010 21:28 13,4 C 4,3 C 0,0 UV-I 0,0 C 53 % 88 % 0 % 1026,2 hPa 0,0 l/m 0,8 km/h (0 Bft) 0 min 0,0 km/h (0 Bft)
16.03.2010 21:30 13,4 C 4,3 C 0,0 UV-I 0,0 C 53 % 88 % 0 % 1026,2 hPa 0,0 l/m 0,4 km/h (0 Bft) 0 min 0,0 km/h (0 Bft)
16.03.2010 21:34 13,2 C 4,3 C 0,0 UV-I 0,0 C 53 % 88 % 0 % 1026,8 hPa 0,0 l/m 0,4 km/h (0 Bft) 0 min 2,9 km/h (1 Bft)
16.03.2010 21:38 13,2 C 4,3 C 0,0 UV-I 0,0 C 53 % 89 % 0 % 1026,8 hPa 0,0 l/m 0,8 km/h (0 Bft) 0 min 0,0 km/h (0 Bft)
16.03.2010 21:40 13,2 C 4,3 C 0,0 UV-I 0,0 C 53 % 89 % 0 % 1026,8 hPa 0,0 l/m 0,8 km/h (0 Bft) 0 min 0,0 km/h (0 Bft)
16.03.2010 21:42 13,2 C 4,2 C 0,0 UV-I 0,0 C 53 % 89 % 0 % 1026,8 hPa 0,0 l/m 0,8 km/h (0 Bft) 0 min 3,4 km/h (1 Bft)
16.03.2010 21:44 13,4 C 4,2 C 0,0 UV-I 0,0 C 53 % 89 % 0 % 1026,8 hPa 0,0 l/m 0,8 km/h (0 Bft) 0 min 0,0 km/h (0 Bft)
16.03.2010 21:46 13,2 C 4,2 C 0,0 UV-I 0,0 C 53 % 89 % 0 % 1026,8 hPa 0,0 l/m 0,4 km/h (0 Bft) 0 min 0,0 km/h (0 Bft)
16.03.2010 21:48 13,2 C 4,2 C 0,0 UV-I 0,0 C 53 % 89 % 0 % 1026,8 hPa 0,0 l/m 0,4 km/h (0 Bft) 0 min 0,0 km/h (0 Bft)
16.03.2010 21:50 13,2 C 4,2 C 0,0 UV-I 0,0 C 53 % 89 % 0 % 1026,8 hPa 0,0 l/m 0,8 km/h (0 Bft) 0 min 4,1 km/h (1 Bft)
16.03.2010 21:54 13,2 C 4,3 C 0,0 UV-I 0,0 C 53 % 89 % 0 % 1027,1 hPa 0,0 l/m 3,2 km/h (1 Bft) 0 min 5,1 km/h (1 Bft)
16.03.2010 21:56 13,2 C 4,3 C 0,0 UV-I 0,0 C 53 % 89 % 0 % 1027,1 hPa 0,0 l/m 4,0 km/h (1 Bft) 0 min 4,3 km/h (1 Bft)
16.03.2010 21:58 13,2 C 4,4 C 0,0 UV-I 0,0 C 53 % 89 % 0 % 1027,1 hPa 0,0 l/m 4,8 km/h (1 Bft) 0 min 0,0 km/h (0 Bft)
16.03.2010 22:00 13,2 C 4,3 C 0,0 UV-I 0,0 C 53 % 89 % 0 % 1027,1 hPa 0,0 l/m 4,4 km/h (1 Bft) 0 min 0,0 km/h (0 Bft)
16.03.2010 22:02 13,4 C 4,3 C 0,0 UV-I 0,1 C 53 % 89 % 0 % 1027,1 hPa 0,0 l/m 3,6 km/h (1 Bft) 0 min 0,0 km/h (0 Bft)
16.03.2010 22:04 13,2 C 4,4 C 0,0 UV-I 0,0 C 53 % 89 % 0 % 1027,1 hPa 0,0 l/m 2,4 km/h (1 Bft) 0 min 0,0 km/h (0 Bft)
16.03.2010 22:08 13,2 C 4,4 C 0,0 UV-I 0,0 C 53 % 90 % 0 % 1027,1 hPa 0,0 l/m 1,2 km/h (1 Bft) 0 min 3,6 km/h (1 Bft)
16.03.2010 22:10 13,2 C 4,4 C 0,0 UV-I 0,0 C 53 % 90 % 0 % 1027,1 hPa 0,0 l/m 1,2 km/h (1 Bft) 0 min 0,0 km/h (0 Bft)
16.03.2010 22:12 13,2 C 4,4 C 0,0 UV-I 0,1 C 53 % 90 % 0 % 1027,0 hPa 0,0 l/m 2,0 km/h (1 Bft) 0 min 4,1 km/h (1 Bft)
16.03.2010 22:14 13,4 C 4,5 C 0,0 UV-I 0,0 C 53 % 90 % 0 % 1027,0 hPa 0,0 l/m 2,0 km/h (1 Bft) 0 min 0,0 km/h (0 Bft)
16.03.2010 22:16 13,4 C 4,4 C 0,0 UV-I 0,1 C 53 % 90 % 0 % 1027,0 hPa 0,0 l/m 2,4 km/h (1 Bft) 0 min 3,4 km/h (1 Bft)
16.03.2010 22:18 13,2 C 4,4 C 0,0 UV-I 0,2 C 53 % 90 % 0 % 1027,0 hPa 0,0 l/m 2,4 km/h (1 Bft) 0 min 3,1 km/h (1 Bft)
16.03.2010 22:22 13,2 C 4,4 C 0,0 UV-I 0,3 C 53 % 90 % 0 % 1027,0 hPa 0,0 l/m 3,6 km/h (1 Bft) 0 min 4,1 km/h (1 Bft)
16.03.2010 22:24 13,2 C 4,5 C 0,0 UV-I 0,2 C 53 % 90 % 0 % 1027,0 hPa 0,0 l/m 4,0 km/h (1 Bft) 0 min 2,9 km/h (1 Bft)
16.03.2010 22:26 13,2 C 4,5 C 0,0 UV-I 0,2 C 53 % 90 % 0 % 1027,0 hPa 0,0 l/m 4,0 km/h (1 Bft) 0 min 2,9 km/h (1 Bft)
16.03.2010 22:28 13,2 C 4,5 C 0,0 UV-I 0,2 C 53 % 90 % 0 % 1027,0 hPa 0,0 l/m 3,6 km/h (1 Bft) 0 min 2,9 km/h (1 Bft)
16.03.2010 22:30 13,2 C 4,5 C 0,0 UV-I 0,3 C 53 % 90 % 0 % 1027,0 hPa 0,0 l/m 4,0 km/h (1 Bft) 0 min 2,4 km/h (1 Bft)
16.03.2010 22:32 13,2 C 4,5 C 0,0 UV-I 0,3 C 53 % 90 % 0 % 1026,9 hPa 0,0 l/m 3,2 km/h (1 Bft) 0 min 3,1 km/h (1 Bft)
16.03.2010 22:34 13,2 C 4,5 C 0,0 UV-I 0,3 C 53 % 90 % 0 % 1026,9 hPa 0,0 l/m 2,8 km/h (1 Bft) 0 min 0,0 km/h (0 Bft)
16.03.2010 22:36 13,4 C 4,5 C 0,0 UV-I 0,3 C 53 % 90 % 0 % 1026,9 hPa 0,0 l/m 2,8 km/h (1 Bft) 0 min 3,4 km/h (1 Bft)
16.03.2010 22:38 13,4 C 4,5 C 0,0 UV-I 0,3 C 53 % 90 % 0 % 1026,9 hPa 0,0 l/m 3,6 km/h (1 Bft) 0 min 4,8 km/h (1 Bft)
16.03.2010 22:40 13,4 C 4,5 C 0,0 UV-I 0,3 C 53 % 90 % 0 % 1026,9 hPa 0,0 l/m 2,8 km/h (1 Bft) 0 min 3,1 km/h (1 Bft)
16.03.2010 22:42 13,4 C 4,6 C 0,0 UV-I 0,2 C 53 % 90 % 0 % 1026,9 hPa 0,0 l/m 3,2 km/h (1 Bft) 0 min 4,3 km/h (1 Bft)
16.03.2010 22:46 13,2 C 4,7 C 0,0 UV-I 0,1 C 53 % 90 % 0 % 1026,9 hPa 0,0 l/m 4,4 km/h (1 Bft) 0 min 4,1 km/h (1 Bft)
16.03.2010 22:48 13,4 C 4,7 C 0,0 UV-I 0,1 C 53 % 90 % 0 % 1026,9 hPa 0,0 l/m 4,4 km/h (1 Bft) 0 min 3,4 km/h (1 Bft)
16.03.2010 22:50 13,4 C 4,7 C 0,0 UV-I 0,1 C 53 % 90 % 0 % 1026,9 hPa 0,0 l/m 3,6 km/h (1 Bft) 0 min 0,0 km/h (0 Bft)
16.03.2010 22:52 13,4 C 4,7 C 0,0 UV-I 0,1 C 53 % 90 % 0 % 1026,8 hPa 0,0 l/m 2,8 km/h (1 Bft) 0 min 0,0 km/h (0 Bft)
16.03.2010 22:54 13,4 C 4,6 C 0,0 UV-I 0,2 C 53 % 90 % 0 % 1026,8 hPa 0,0 l/m 2,0 km/h (1 Bft) 0 min 0,0 km/h (0 Bft)
16.03.2010 22:56 13,4 C 4,6 C 0,0 UV-I 0,2 C 53 % 90 % 0 % 1026,8 hPa 0,0 l/m 1,6 km/h (1 Bft) 0 min 0,0 km/h (0 Bft)
16.03.2010 22:58 13,4 C 4,6 C 0,0 UV-I 0,2 C 53 % 90 % 0 % 1026,8 hPa 0,0 l/m 0,8 km/h (0 Bft) 0 min 0,0 km/h (0 Bft)
16.03.2010 23:00 13,4 C 4,6 C 0,0 UV-I 0,2 C 53 % 90 % 0 % 1026,8 hPa 0,0 l/m 0,4 km/h (0 Bft) 0 min 0,0 km/h (0 Bft)
16.03.2010 23:02 13,4 C 4,6 C 0,0 UV-I 0,1 C 53 % 90 % 0 % 1026,8 hPa 0,0 l/m 0,8 km/h (0 Bft) 0 min 3,4 km/h (1 Bft)
16.03.2010 23:04 13,4 C 4,6 C 0,0 UV-I 0,1 C 53 % 90 % 0 % 1026,8 hPa 0,0 l/m 0,8 km/h (0 Bft) 0 min 0,0 km/h (0 Bft)
16.03.2010 23:06 13,4 C 4,6 C 0,0 UV-I 0,0 C 53 % 90 % 0 % 1026,8 hPa 0,0 l/m 0,8 km/h (0 Bft) 0 min 0,0 km/h (0 Bft)
16.03.2010 23:08 13,4 C 4,6 C 0,0 UV-I 0,0 C 53 % 90 % 0 % 1026,8 hPa 0,0 l/m 0,8 km/h (0 Bft) 0 min 0,0 km/h (0 Bft)
16.03.2010 23:10 13,4 C 4,7 C 0,0 UV-I 0,0 C 53 % 90 % 0 % 1026,8 hPa 0,0 l/m 0,4 km/h (0 Bft) 0 min 0,0 km/h (0 Bft)
16.03.2010 23:12 13,4 C 4,7 C 0,0 UV-I 0,0 C 53 % 90 % 0 % 1026,7 hPa 0,0 l/m 0,4 km/h (0 Bft) 0 min 0,0 km/h (0 Bft)
16.03.2010 23:16 13,4 C 4,7 C 0,0 UV-I 0,0 C 53 % 90 % 0 % 1026,7 hPa 0,0 l/m 0,0 km/h (0 Bft) 0 min 0,0 km/h (0 Bft)
16.03.2010 23:18 13,4 C 4,7 C 0,0 UV-I 0,0 C 53 % 90 % 0 % 1026,7 hPa 0,0 l/m 0,0 km/h (0 Bft) 0 min 0,0 km/h (0 Bft)
16.03.2010 23:22 13,4 C 4,5 C 0,0 UV-I 0,0 C 53 % 90 % 0 % 1026,7 hPa 0,0 l/m 0,0 km/h (0 Bft) 0 min 0,0 km/h (0 Bft)
16.03.2010 23:24 13,4 C 4,6 C 0,0 UV-I 0,0 C 53 % 90 % 0 % 1026,7 hPa 0,0 l/m 0,4 km/h (0 Bft) 0 min 0,0 km/h (0 Bft)
16.03.2010 23:26 13,4 C 4,5 C 0,0 UV-I 0,0 C 53 % 90 % 0 % 1026,7 hPa 0,0 l/m 0,8 km/h (0 Bft) 0 min 2,4 km/h (1 Bft)
16.03.2010 23:28 13,4 C 4,6 C 0,0 UV-I 0,0 C 53 % 90 % 0 % 1026,7 hPa 0,0 l/m 1,6 km/h (1 Bft) 0 min 4,1 km/h (1 Bft)
16.03.2010 23:30 13,4 C 4,7 C 0,0 UV-I 0,0 C 53 % 90 % 0 % 1026,7 hPa 0,0 l/m 1,6 km/h (1 Bft) 0 min 0,0 km/h (0 Bft)
16.03.2010 23:32 13,4 C 4,7 C 0,0 UV-I 0,0 C 53 % 90 % 0 % 1026,2 hPa 0,0 l/m 2,0 km/h (1 Bft) 0 min 0,0 km/h (0 Bft)
16.03.2010 23:34 13,4 C 4,7 C 0,0 UV-I 0,0 C 53 % 90 % 0 % 1026,2 hPa 0,0 l/m 2,0 km/h (1 Bft) 0 min 2,6 km/h (1 Bft)
16.03.2010 23:36 13,4 C 4,7 C 0,0 UV-I 0,0 C 53 % 90 % 0 % 1026,2 hPa 0,0 l/m 2,8 km/h (1 Bft) 0 min 4,1 km/h (1 Bft)
16.03.2010 23:38 13,4 C 4,7 C 0,0 UV-I 0,0 C 53 % 90 % 0 % 1026,2 hPa 0,0 l/m 2,8 km/h (1 Bft) 0 min 3,4 km/h (1 Bft)
16.03.2010 23:40 13,4 C 4,7 C 0,0 UV-I 0,0 C 53 % 90 % 0 % 1026,2 hPa 0,0 l/m 2,0 km/h (1 Bft) 0 min 2,9 km/h (1 Bft)
16.03.2010 23:42 13,4 C 4,6 C 0,0 UV-I 0,0 C 53 % 90 % 0 % 1026,2 hPa 0,0 l/m 2,8 km/h (1 Bft) 0 min 0,0 km/h (0 Bft)
16.03.2010 23:48 13,4 C 4,7 C 0,0 UV-I 0,0 C 53 % 90 % 0 % 1026,2 hPa 0,0 l/m 2,8 km/h (1 Bft) 0 min 3,8 km/h (1 Bft)
16.03.2010 23:50 13,4 C 4,7 C 0,0 UV-I 0,0 C 53 % 90 % 0 % 1026,2 hPa 0,0 l/m 4,0 km/h (1 Bft) 0 min 4,1 km/h (1 Bft)
16.03.2010 23:52 13,4 C 4,7 C 0,0 UV-I 0,0 C 53 % 90 % 0 % 1026,4 hPa 0,0 l/m 3,6 km/h (1 Bft) 0 min 0,0 km/h (0 Bft)
16.03.2010 23:54 13,4 C 4,7 C 0,0 UV-I 0,0 C 53 % 90 % 0 % 1026,4 hPa 0,0 l/m 3,6 km/h (1 Bft) 0 min 0,0 km/h (0 Bft)
16.03.2010 23:56 13,4 C 4,7 C 0,0 UV-I 0,0 C 53 % 90 % 0 % 1026,4 hPa 0,0 l/m 3,2 km/h (1 Bft) 0 min 0,0 km/h (0 Bft)
16.03.2010 23:58 13,4 C 4,7 C 0,0 UV-I 0,0 C 53 % 90 % 0 % 1026,4 hPa 0,0 l/m 2,8 km/h (1 Bft) 0 min 0,0 km/h (0 Bft)
_ Min-Zeit 03:22 21:42 00:00 00:00 15:34 15:16 00:00 00:32 - 18:16 - 00:18
Minimum _ 12,8 C 4,2 C 0,0 UV-I 0,0 C 49 % 74 % 0 % 1019,8 hPa - 0,0 km/h (0 Bft) - 0,0 km/h (0 Bft)
_ Max-Zeit 15:18 15:22 14:14 14:20 00:06 00:28 12:58 14:12 01:18 02:02 12:58 01:40
Maximum _ 15,4 C 9,1 C 8,6 UV-I 6,4 C 57 % 94 % 100 % 1027,8 hPa 0,2 l/m 11,2 km/h
W (2 Bft)
2 min 24,3 km/h
W-SW (4 Bft)
Durchschnitt _ 13,5 C 6,3 C 0,5 UV-I 0,5 C 54 % 87 % 12 % 1024,4 hPa #1,4 l/m 4,1 km/h (1 Bft) #55 min. 3,8 km/h (1 Bft)
© 2012 W. Hausmann